GFSWCAN_prec_snow_225.txt.gz
Snowfall_Accumulation
0.0 0.0 0.0 0.0 0.0 0.0 0.0 0.0 0.0 0.0 0.0 0.0 0.0 0.0 0.0 0.0 0.0 0.0 0.0 0.0 0.0 35.1 4.6 0.0 0.0 0.2 2.7 2.1 9.9 4.5 14.5 10.3 16.1 18.8 18.4 15.1 16.3 10.4 8.0 3.0 2.9 5.0 17.4 18.0 16.7 22.0 9.6 0.0 1.0 4.8 3.0 5.5 7.3 8.5
0.0 0.0 0.0 0.0 0.0 0.0 0.0 0.0 0.0 0.0 0.0 0.0 0.0 0.0 0.0 0.0 0.0 0.0 0.7 0.0 0.0 7.5 9.1 0.0 0.0 0.0 0.0 0.0 1.8 3.6 6.4 8.6 11.6 15.7 13.0 9.4 10.0 6.9 8.8 11.1 1.7 6.7 6.2 12.6 12.9 9.8 2.4 0.8 1.3 1.8 1.3 4.4 6.7 6.8
0.0 0.0 0.0 0.0 0.0 0.0 0.0 0.0 0.0 0.0 0.0 0.0 0.0 0.0 0.0 0.0 0.0 0.0 2.1 0.0 0.0 25.4 8.6 0.8 0.2 0.0 0.0 0.0 0.0 9.0 1.7 0.7 3.5 1.2 12.9 12.0 11.7 2.0 8.7 6.2 6.3 5.8 2.5 5.9 5.8 5.5 1.8 1.1 1.1 2.1 3.1 5.3 5.0 4.7
0.0 0.0 0.0 0.0 0.0 0.0 0.0 0.0 0.0 0.0 0.0 0.0 0.0 0.0 0.0 0.0 0.0 0.0 0.0 0.0 0.0 4.4 29.0 12.1 0.0 0.0 0.0 0.0 0.0 0.0 0.0 0.0 0.3 1.5 18.2 15.3 13.9 2.8 9.9 7.2 6.8 10.0 5.1 4.9 10.3 13.9 2.1 3.5 5.6 4.5 4.7 4.5 3.9 4.1
0.0 0.0 0.0 0.0 0.0 0.0 0.0 0.0 0.0 0.0 0.0 0.0 0.0 0.0 0.0 0.0 0.0 0.0 0.0 0.0 0.0 0.4 18.4 13.5 0.0 0.0 0.0 0.0 0.0 0.0 0.0 1.6 8.8 14.9 16.8 11.2 3.6 10.4 11.4 6.9 4.8 6.4 8.2 9.9 11.2 8.2 9.1 7.0 5.9 4.8 3.5 3.2 2.5 1.5
0.0 0.0 0.0 0.0 0.0 0.0 0.0 0.0 0.0 0.0 0.0 0.0 0.0 0.0 0.0 0.0 0.0 0.0 49.3 6.3 0.0 0.0 18.6 21.0 4.2 1.5 0.0 0.0 0.0 0.0 0.0 0.6 7.7 14.1 10.1 2.9 0.0 6.1 20.3 9.7 5.3 7.3 9.9 8.5 8.1 8.0 6.4 5.1 3.9 2.8 2.2 2.2 1.5 0.9
0.0 0.0 0.0 0.0 0.0 0.0 0.0 0.0 0.0 0.0 0.0 0.0 0.0 0.0 0.0 0.0 0.0 14.0 13.3 0.4 0.0 0.0 18.2 18.1 10.8 6.8 1.5 0.0 0.0 3.2 2.4 12.6 17.8 19.5 12.8 4.7 1.8 7.7 17.3 10.3 7.1 7.6 8.0 6.4 4.6 3.5 3.1 3.1 2.5 1.4 0.8 0.7 0.5 0.1
0.0 0.0 0.0 0.0 0.0 0.0 0.0 0.0 0.0 0.0 0.0 0.0 0.0 0.0 0.0 0.0 0.0 4.7 0.0 0.0 0.0 1.0 5.9 19.4 15.3 19.6 0.0 9.0 13.6 3.7 9.6 11.3 13.1 11.9 10.0 5.4 6.3 10.3 17.6 5.8 4.1 3.6 3.9 2.8 1.9 0.9 0.5 0.2 0.0 0.0 0.0 0.0 0.0 0.0
0.0 0.0 0.0 0.0 0.0 0.0 0.0 0.0 0.0 0.0 0.0 0.0 0.0 0.0 0.0 6.6 13.7 0.0 0.0 0.0 0.0 0.1 13.2 6.4 8.7 23.0 6.6 7.9 7.5 7.4 6.2 19.1 5.3 10.5 7.3 6.6 10.3 13.0 9.6 3.5 2.3 1.2 1.8 1.3 0.0 0.0 0.0 0.0 0.0 0.0 0.2 0.2 0.3 0.9
0.0 0.0 0.0 0.0 0.0 0.0 0.0 0.0 0.0 0.0 0.0 0.0 2.7 26.4 66.5 5.8 0.0 0.0 0.0 23.7 17.2 5.8 8.0 8.6 2.3 10.6 4.8 9.7 11.8 12.2 7.4 9.9 10.7 5.7 2.2 10.2 6.9 3.2 2.5 1.4 0.8 0.4 1.1 0.5 0.2 0.1 0.1 0.1 0.3 0.3 0.6 0.9 2.3 2.2
0.0 0.0 0.0 0.0 0.0 0.0 0.0 0.0 0.0 0.0 0.0 0.0 23.7 32.3 0.0 0.0 0.0 13.6 31.0 20.7 10.3 8.1 3.0 5.2 3.7 10.1 2.1 13.6 11.4 7.8 15.9 6.7 11.0 6.3 4.6 8.1 6.0 6.9 1.3 0.6 0.5 0.6 0.0 0.2 0.4 0.5 0.3 0.8 0.8 1.2 2.9 2.9 3.7 3.3
0.0 0.0 0.0 0.0 0.0 0.0 0.0 0.0 0.0 0.0 0.0 0.0 0.0 0.0 0.0 17.9 17.1 18.3 14.5 10.2 5.4 4.8 2.4 3.1 2.9 2.8 2.2 2.1 7.7 8.2 7.9 13.5 19.6 6.9 10.9 8.9 11.9 4.2 0.2 1.2 1.4 0.7 0.9 1.5 1.7 3.9 2.0 2.0 1.6 2.2 2.7 2.4 2.3 2.1
0.0 0.0 0.0 0.0 0.0 0.0 0.0 0.0 0.0 0.0 0.0 0.0 2.2 9.5 10.4 13.5 14.4 9.8 9.4 7.1 6.3 3.0 2.3 1.0 4.7 2.5 4.5 2.7 12.2 6.7 13.7 14.6 8.9 14.8 8.6 9.0 6.4 3.5 1.8 1.7 2.2 2.5 3.2 4.3 4.2 3.3 3.9 2.8 2.8 1.7 3.3 4.2 5.1 6.9
0.0 0.0 0.0 0.0 0.0 0.0 0.0 0.0 0.0 0.0 0.2 9.0 9.4 9.8 7.3 6.2 7.8 8.0 8.3 8.1 5.2 2.8 2.6 2.4 3.7 7.2 7.1 6.4 11.7 14.0 15.3 10.2 12.0 10.1 8.7 6.8 6.0 6.8 5.4 4.5 2.9 3.1 3.5 2.5 3.4 3.9 6.8 6.9 8.5 9.6 9.3 10.4 9.1 9.5
0.0 0.0 0.0 0.0 0.0 0.0 0.0 0.0 0.0 0.0 6.6 11.6 5.9 3.9 7.6 7.9 6.3 6.7 5.9 4.7 3.8 4.5 4.3 5.2 5.5 6.2 8.4 10.7 9.4 8.7 8.9 7.6 6.3 13.7 10.9 9.4 7.3 7.1 6.4 6.3 6.1 6.3 6.5 6.7 7.9 8.5 10.9 11.6 9.9 11.0 10.2 9.0 7.6 7.7
0.0 0.0 0.0 0.0 0.0 0.0 0.0 0.0 0.0 1.1 6.5 5.9 6.7 8.1 6.9 7.5 9.2 7.6 5.4 5.8 4.6 5.8 5.9 6.7 10.5 10.5 10.9 8.8 5.6 5.1 4.0 7.2 13.6 9.3 8.6 8.6 8.3 8.8 9.1 8.5 8.6 8.1 7.8 8.0 8.4 8.0 8.1 8.5 8.5 9.2 7.8 7.1 7.1 6.2
0.0 0.3 0.0 0.0 0.0 0.0 0.0 3.8 6.4 11.1 7.6 6.1 11.9 12.2 10.2 8.5 13.2 11.5 9.2 8.1 5.2 4.8 7.8 7.4 6.8 6.5 5.0 5.1 5.6 5.0 8.4 10.0 8.5 8.7 8.9 8.5 8.5 9.6 10.2 10.0 9.7 7.2 6.5 6.7 6.6 6.6 6.6 6.8 5.3 3.9 4.4 6.1 3.9 3.2
0.7 0.0 0.0 0.0 0.0 0.0 6.7 5.5 7.4 6.4 6.1 8.4 11.7 12.7 7.9 8.9 9.4 8.6 8.3 4.8 2.5 3.4 4.6 8.0 4.1 6.0 8.0 7.7 8.9 9.3 9.9 9.9 9.7 9.5 9.4 8.9 8.5 8.5 7.9 7.6 7.7 6.7 6.2 5.6 4.6 4.3 4.0 3.4 2.6 3.0 2.6 2.5 1.7 1.7
0.4 0.0 0.0 0.0 0.0 4.1 6.3 4.8 2.1 4.5 9.9 8.1 8.3 5.8 4.5 6.7 5.5 4.9 4.4 2.3 1.3 0.9 1.3 8.0 7.0 6.6 9.3 10.1 9.9 9.3 9.1 8.0 8.7 8.5 7.6 7.2 6.6 6.8 6.2 5.7 6.5 6.8 5.8 4.7 3.0 2.4 2.1 1.6 1.6 1.5 1.4 0.9 1.2 1.6
0.1 0.0 0.0 0.1 0.4 4.5 2.8 2.3 0.4 2.7 5.3 5.3 2.2 2.2 1.6 3.8 2.8 1.9 1.7 2.8 1.2 2.0 6.3 6.0 11.6 11.8 10.3 8.5 6.4 6.6 6.8 6.1 4.9 3.7 5.1 5.7 5.9 4.4 5.1 4.3 4.2 4.1 4.3 3.1 2.2 1.6 1.4 1.3 1.5 1.4 1.3 1.3 1.4 1.5
1.1 0.0 0.4 0.8 2.9 5.0 3.2 1.2 1.4 0.7 3.5 1.9 1.2 0.9 1.5 1.6 2.4 2.1 1.7 1.8 7.6 7.2 7.7 8.5 9.5 9.5 6.6 5.7 4.2 3.6 4.4 3.8 3.9 2.8 3.2 4.7 4.8 3.0 3.1 3.3 2.8 2.6 2.3 2.9 2.6 2.5 1.9 2.0 1.7 1.3 1.0 1.1 1.3 1.1
3.9 1.1 3.7 2.1 4.3 3.6 2.3 0.2 0.4 0.8 1.0 2.3 1.6 2.1 3.3 3.0 2.1 2.1 2.3 2.5 7.3 8.3 8.1 6.0 5.0 3.6 2.9 2.6 2.6 1.7 2.6 2.0 2.7 3.6 4.3 3.4 4.0 3.7 4.0 4.1 3.7 3.2 3.0 3.0 2.5 2.5 2.1 1.6 0.8 0.6 0.6 1.0 0.8 0.7
2.0 2.3 6.8 4.2 6.5 4.7 1.1 1.1 1.3 0.4 1.6 1.5 1.7 2.2 2.2 1.8 2.6 2.0 4.7 4.6 8.9 8.8 6.0 3.4 2.7 1.8 1.9 2.3 1.3 1.2 1.2 0.8 1.4 1.8 2.4 2.8 2.8 2.9 2.7 2.8 2.9 2.5 2.3 2.2 1.3 0.9 0.7 0.4 0.2 0.3 0.5 0.8 1.0 1.6
4.7 7.2 5.8 2.9 2.5 3.9 2.4 2.3 1.6 1.4 1.0 1.5 2.5 2.8 2.2 2.7 4.8 7.4 7.4 5.9 8.5 4.5 3.1 4.0 3.5 2.5 2.0 2.1 2.1 2.3 2.6 1.9 2.0 2.2 2.6 2.4 2.6 2.9 1.7 1.4 1.1 0.8 0.6 0.2 0.1 0.1 0.4 0.9 0.8 1.0 0.7 1.1 1.0 1.0
8.9 9.5 7.9 4.3 1.8 2.2 1.2 1.6 2.4 2.5 1.9 0.7 1.6 2.1 2.8 3.2 6.4 5.4 4.4 7.9 6.9 4.7 4.4 3.6 3.5 4.3 4.6 4.1 3.9 3.5 2.2 1.5 1.5 1.7 2.1 1.2 1.6 1.3 1.7 1.6 1.3 1.2 0.7 0.9 1.3 0.8 0.8 0.9 1.3 1.4 1.5 1.4 1.4 1.7
8.0 3.0 2.8 3.1 2.4 2.5 1.9 1.7 1.6 1.3 1.2 1.7 3.3 1.6 2.0 5.7 6.1 7.0 8.8 10.3 7.0 5.8 6.1 5.9 5.4 3.7 3.5 3.6 4.8 3.7 2.4 1.1 0.7 1.2 0.9 0.3 0.5 1.9 2.1 2.5 3.0 2.9 2.0 1.4 1.4 1.7 2.2 1.9 2.1 2.3 2.6 2.1 2.1 1.7
5.9 4.9 2.5 1.9 3.1 4.2 5.7 5.3 4.7 4.3 4.5 5.3 3.7 3.9 5.6 8.8 8.4 10.5 9.6 7.6 7.1 7.1 6.4 4.5 3.1 4.4 4.2 2.9 3.1 2.5 0.9 0.9 1.6 1.8 1.0 1.3 1.2 1.1 2.0 2.8 3.1 2.7 1.2 1.8 2.6 2.7 2.8 3.5 3.4 3.1 3.1 3.0 2.0 1.9
4.2 2.5 3.7 3.2 3.9 5.3 5.6 4.4 5.7 8.0 7.0 5.0 4.2 5.3 6.0 7.1 9.6 9.5 8.0 7.9 7.3 5.5 6.5 6.4 4.6 2.9 4.6 5.1 3.9 3.3 3.5 2.8 3.2 2.2 2.1 3.3 2.0 1.5 1.4 2.2 1.7 1.4 0.7 1.5 2.8 3.2 4.7 4.6 4.3 3.7 3.9 3.8 3.6 3.4
2.7 1.1 1.8 2.1 1.4 4.8 5.1 4.9 6.3 5.5 3.8 4.6 6.6 7.2 5.4 5.1 9.3 8.7 8.3 6.4 5.5 4.7 6.5 7.0 8.3 5.5 4.3 5.8 6.0 6.2 5.9 6.5 4.9 3.3 2.6 3.2 2.9 2.5 1.6 1.6 2.4 2.4 2.2 2.5 3.4 3.4 4.3 4.8 4.3 4.7 4.6 5.1 4.3 4.5
0.5 0.3 0.8 0.3 0.6 4.3 6.5 3.8 3.9 3.2 2.3 3.7 3.7 3.3 3.6 8.2 11.8 6.7 4.9 3.6 4.1 5.1 5.7 5.3 5.5 5.0 5.9 5.4 6.0 7.4 7.5 8.6 7.6 5.1 3.8 3.4 2.8 1.8 1.3 1.4 1.5 2.1 1.5 2.0 2.4 4.2 4.8 5.5 6.3 6.7 6.2 6.6 7.6 7.8
1.3 1.4 1.0 0.5 1.6 3.4 2.1 1.2 2.2 2.8 4.2 6.2 5.0 2.5 3.9 6.9 7.3 5.1 4.3 4.7 3.3 2.3 2.3 3.2 3.7 4.1 5.3 6.0 5.8 5.7 7.8 9.6 8.3 6.0 5.1 4.0 2.6 2.2 1.7 1.8 1.9 2.0 3.3 3.6 3.3 3.4 4.2 4.9 5.1 5.6 5.7 5.7 5.6 4.8
2.2 2.5 2.2 2.0 3.3 2.3 1.4 2.0 3.0 4.6 6.0 6.9 8.4 7.3 7.2 4.6 3.3 4.0 4.4 3.3 3.0 2.3 2.5 3.2 4.6 5.8 5.5 7.0 7.0 6.8 6.3 6.5 5.4 4.7 4.2 3.7 3.1 2.3 1.9 2.2 2.5 2.6 4.2 4.1 3.8 4.2 4.4 4.2 4.7 5.1 5.2 5.1 5.2 5.9
2.6 1.2 1.7 1.8 2.0 1.6 1.4 1.8 3.3 4.0 4.7 5.4 6.8 6.3 5.2 3.1 4.1 6.0 4.0 3.1 5.2 4.7 4.0 3.9 4.4 5.8 6.0 4.9 4.4 4.4 4.1 3.7 2.8 2.1 2.0 1.7 1.5 1.7 1.7 1.6 1.9 2.8 3.4 4.3 4.2 4.0 3.8 3.6 4.3 4.4 4.7 4.6 4.2 4.6

GFSWCAN_prec_snow_228.txt.gz
Snowfall_Accumulation
0.0 0.0 0.0 0.0 0.0 0.0 0.0 0.0 0.0 0.0 0.0 0.0 0.0 0.0 0.0 0.0 0.0 0.0 0.0 0.0 0.0 35.3 4.6 0.0 0.0 0.2 2.7 2.1 9.9 4.5 14.5 10.3 16.1 18.8 18.5 15.1 16.3 10.4 8.0 3.0 2.9 5.0 17.5 18.0 16.9 22.3 9.7 0.0 1.0 4.8 3.0 5.5 7.3 8.5
0.0 0.0 0.0 0.0 0.0 0.0 0.0 0.0 0.0 0.0 0.0 0.0 0.0 0.0 0.0 0.0 0.0 0.0 0.7 0.0 0.0 8.0 9.1 0.0 0.0 0.0 0.0 0.0 1.8 3.6 6.4 8.6 11.6 15.8 13.1 9.6 10.0 6.9 8.8 11.1 1.7 6.8 6.2 12.6 12.9 9.8 2.4 0.8 1.3 1.8 1.3 4.4 6.7 6.8
0.0 0.0 0.0 0.0 0.0 0.0 0.0 0.0 0.0 0.0 0.0 0.0 0.0 0.0 0.0 0.0 0.0 0.0 2.1 0.0 0.0 25.9 8.6 0.8 0.2 0.0 0.0 0.0 0.0 9.0 1.7 0.7 3.5 1.2 12.9 12.0 11.7 2.0 8.7 6.2 6.3 5.8 2.5 6.0 5.8 5.6 1.8 1.1 1.1 2.1 3.1 5.3 5.0 4.7
0.0 0.0 0.0 0.0 0.0 0.0 0.0 0.0 0.0 0.0 0.0 0.0 0.0 0.0 0.0 0.0 0.0 0.0 0.0 0.0 0.0 4.6 29.2 12.1 0.0 0.0 0.0 0.0 0.0 0.0 0.0 0.0 0.3 1.5 18.6 15.7 14.1 2.8 9.9 7.2 6.8 10.0 5.2 4.9 10.3 13.9 2.1 3.5 5.6 4.5 4.7 4.5 3.9 4.1
0.0 0.0 0.0 0.0 0.0 0.0 0.0 0.0 0.0 0.0 0.0 0.0 0.0 0.0 0.0 0.0 0.0 0.0 0.0 0.0 0.0 0.4 18.4 13.5 0.0 0.0 0.0 0.0 0.0 0.0 0.0 1.6 8.8 15.2 17.7 11.6 3.6 10.5 11.4 6.9 4.9 6.4 8.2 9.9 11.2 8.2 9.1 7.0 5.9 4.8 3.5 3.2 2.5 1.5
0.0 0.0 0.0 0.0 0.0 0.0 0.0 0.0 0.0 0.0 0.0 0.0 0.0 0.0 0.0 0.0 0.0 0.0 49.5 6.3 0.0 0.0 19.1 21.1 4.2 1.5 0.0 0.0 0.0 0.0 0.0 0.6 7.8 14.5 10.6 3.1 0.0 6.5 21.0 9.7 5.3 7.3 9.9 8.5 8.1 8.0 6.4 5.1 3.9 2.8 2.2 2.2 1.5 0.9
0.0 0.0 0.0 0.0 0.0 0.0 0.0 0.0 0.0 0.0 0.0 0.0 0.0 0.0 0.0 0.0 0.0 14.2 13.3 0.4 0.0 0.0 18.9 18.3 10.8 6.8 1.5 0.0 0.0 3.2 2.4 12.6 17.8 19.8 13.3 4.9 1.8 8.7 18.3 10.4 7.1 7.6 8.0 6.4 4.6 3.5 3.1 3.1 2.5 1.4 0.8 0.7 0.5 0.1
0.0 0.0 0.0 0.0 0.0 0.0 0.0 0.0 0.0 0.0 0.0 0.0 0.0 0.0 0.0 0.0 0.0 4.7 0.0 0.0 0.0 1.5 6.4 19.7 15.3 19.6 0.0 9.0 13.6 3.7 9.6 11.4 13.4 12.4 10.6 5.7 6.7 11.0 18.0 5.8 4.1 3.6 3.9 2.8 1.9 0.9 0.5 0.2 0.0 0.0 0.0 0.0 0.0 0.0
0.0 0.0 0.0 0.0 0.0 0.0 0.0 0.0 0.0 0.0 0.0 0.0 0.0 0.0 0.0 6.8 13.8 0.0 0.0 0.0 0.0 0.5 13.2 6.4 8.7 23.0 6.6 7.9 7.5 7.4 6.2 19.4 5.3 10.9 7.5 6.9 10.5 13.1 9.6 3.5 2.3 1.2 1.8 1.3 0.0 0.0 0.0 0.0 0.0 0.0 0.2 0.2 0.3 0.9
0.0 0.0 0.0 0.0 0.0 0.0 0.0 0.0 0.0 0.0 0.0 0.0 2.7 26.4 66.5 5.8 0.0 0.0 0.0 24.7 18.2 6.6 8.3 8.6 2.3 10.6 4.8 9.7 11.8 12.2 7.4 9.9 10.9 5.7 2.2 10.5 6.9 3.2 2.5 1.4 0.8 0.4 1.1 0.5 0.2 0.1 0.1 0.1 0.3 0.3 0.6 0.9 2.3 2.2
0.0 0.0 0.0 0.0 0.0 0.0 0.0 0.0 0.0 0.0 0.0 0.0 23.9 32.3 0.0 0.0 0.0 14.3 31.7 21.8 10.9 8.6 3.0 5.2 3.7 10.1 2.1 13.6 11.4 7.8 15.9 6.9 11.1 6.3 4.7 8.1 6.0 6.9 1.3 0.6 0.5 0.6 0.0 0.2 0.4 0.5 0.3 0.9 0.8 1.2 2.9 2.9 3.7 3.3
0.0 0.0 0.0 0.0 0.0 0.0 0.0 0.0 0.0 0.0 0.0 0.0 0.0 0.0 0.0 17.9 17.4 19.1 15.0 10.2 5.4 4.8 2.4 3.1 2.9 2.8 2.2 2.1 7.7 8.3 8.0 13.5 19.6 6.9 11.3 8.9 11.9 4.2 0.2 1.2 1.4 0.7 0.9 1.5 1.7 3.9 2.0 2.0 1.6 2.2 2.7 2.4 2.6 2.1
0.0 0.0 0.0 0.0 0.0 0.0 0.0 0.0 0.0 0.0 0.0 0.0 2.2 9.5 10.4 13.5 14.5 10.0 9.4 7.1 6.3 3.0 2.3 1.0 4.7 2.5 4.5 2.7 12.6 6.8 13.8 14.6 8.9 14.9 8.6 9.0 6.4 3.5 1.8 1.7 2.2 2.5 3.2 4.3 4.2 3.3 3.9 2.8 2.9 1.8 3.3 4.6 5.3 8.0
0.0 0.0 0.0 0.0 0.0 0.0 0.0 0.0 0.0 0.0 0.3 9.0 9.4 9.8 7.3 6.2 7.8 8.0 8.3 8.1 5.2 2.8 2.6 2.4 3.7 7.5 7.9 7.9 12.2 14.1 15.3 10.2 12.1 10.2 8.7 6.8 6.0 6.8 5.4 4.5 2.9 3.1 3.5 2.5 3.4 3.9 6.8 7.0 8.5 9.8 9.6 11.1 9.7 10.9
0.0 0.0 0.0 0.0 0.0 0.0 0.0 0.0 0.0 0.0 6.6 11.6 5.9 3.9 7.6 7.9 6.3 6.7 5.9 4.7 3.8 4.5 4.3 5.2 5.5 6.3 8.4 11.4 9.7 8.7 8.9 7.6 6.3 13.7 10.9 9.4 7.3 7.1 6.4 6.3 6.1 6.3 6.5 6.7 7.9 8.5 10.9 11.8 10.1 11.2 10.4 9.2 8.1 9.1
0.0 0.0 0.0 0.0 0.0 0.0 0.0 0.0 0.0 1.1 6.6 5.9 6.8 8.2 6.9 7.5 9.2 7.6 5.4 5.8 4.6 5.8 5.9 6.7 10.8 11.0 11.5 9.3 5.9 5.1 4.0 7.2 13.6 9.3 8.6 8.6 8.3 8.8 9.1 8.5 8.6 8.1 7.8 8.0 8.4 8.0 8.1 8.8 9.1 10.1 8.4 7.4 7.8 8.4
0.0 0.3 0.0 0.0 0.0 0.0 0.0 3.8 6.4 11.1 7.6 6.1 11.9 12.2 10.2 8.5 13.2 11.5 9.2 8.1 5.2 4.8 7.8 7.4 7.1 6.6 5.0 5.1 5.7 5.0 8.4 10.0 8.5 8.7 8.9 8.5 8.5 9.6 10.2 10.0 9.7 7.2 6.5 6.7 6.7 6.6 6.7 7.1 6.0 4.7 5.0 6.8 4.5 4.4
0.7 0.0 0.0 0.0 0.0 0.0 6.7 5.5 7.4 6.4 6.2 8.4 11.7 12.7 7.9 8.9 9.4 8.6 8.3 4.8 2.5 3.4 4.6 8.1 4.2 6.1 8.1 7.7 8.9 9.3 9.9 9.9 9.7 9.5 9.4 8.9 8.5 8.5 7.9 7.6 7.7 6.7 6.2 5.6 4.6 4.3 4.0 3.5 2.7 3.1 2.8 2.7 2.0 2.0
0.4 0.0 0.0 0.0 0.0 4.1 6.3 4.8 2.1 4.5 9.9 8.1 8.3 5.8 4.5 6.7 5.5 4.9 4.4 2.3 1.3 0.9 1.3 8.0 7.1 6.6 9.3 10.1 9.9 9.3 9.1 8.0 8.7 8.5 7.6 7.2 6.6 6.8 6.2 5.7 6.5 6.8 5.8 4.7 3.0 2.4 2.1 1.6 1.6 1.6 1.5 1.0 1.3 1.6
0.1 0.1 0.0 0.1 0.6 4.8 2.9 2.3 0.4 2.7 5.3 5.3 2.2 2.2 1.6 3.8 2.8 1.9 1.7 2.8 1.2 2.0 6.3 6.1 11.6 11.8 10.3 8.5 6.4 6.6 6.8 6.1 4.9 3.7 5.1 5.7 5.9 4.4 5.1 4.3 4.2 4.1 4.3 3.1 2.3 1.6 1.4 1.3 1.5 1.4 1.3 1.3 1.4 1.5
1.2 0.0 0.5 0.8 3.1 5.6 3.8 1.2 1.4 0.7 3.5 1.9 1.2 0.9 1.5 1.6 2.4 2.1 1.7 1.8 7.6 7.2 7.7 8.5 9.5 9.5 6.6 5.7 4.2 3.6 4.4 3.8 3.9 2.8 3.2 4.7 4.8 3.0 3.1 3.3 2.8 2.6 2.3 2.9 2.6 2.5 1.9 2.0 1.7 1.3 1.0 1.1 1.3 1.1
3.9 1.2 3.7 2.1 4.6 3.9 2.3 0.2 0.5 0.8 1.0 2.3 1.6 2.1 3.3 3.0 2.1 2.1 2.3 2.5 7.3 8.3 8.1 6.0 5.0 3.6 2.9 2.6 2.6 1.7 2.6 2.0 2.7 3.6 4.3 3.4 4.0 3.7 4.0 4.1 3.7 3.2 3.0 3.0 2.5 2.5 2.1 1.6 0.8 0.6 0.6 1.0 0.9 0.7
2.2 2.3 6.8 4.2 6.5 4.7 1.1 1.1 1.3 0.4 1.6 1.5 1.7 2.2 2.2 1.8 2.6 2.0 4.7 4.6 8.9 8.8 6.0 3.4 2.7 1.8 1.9 2.3 1.3 1.2 1.2 0.8 1.4 1.8 2.4 2.8 2.8 2.9 2.7 2.8 2.9 2.5 2.3 2.2 1.3 0.9 0.7 0.4 0.2 0.3 0.5 0.8 1.1 1.6
4.9 7.7 6.0 2.9 2.5 3.9 2.4 2.3 1.6 1.5 1.1 1.5 2.5 2.8 2.2 2.7 4.8 7.4 7.4 5.9 8.5 4.5 3.1 4.0 3.5 2.5 2.0 2.1 2.1 2.3 2.6 1.9 2.0 2.2 2.6 2.4 2.6 2.9 1.7 1.4 1.1 0.8 0.6 0.2 0.1 0.1 0.4 0.9 0.8 1.1 0.8 1.1 1.1 1.0
9.0 9.5 7.9 4.4 1.8 2.2 1.2 1.6 2.4 2.5 1.9 0.7 1.6 2.1 2.8 3.2 6.4 5.4 4.4 7.9 6.9 4.7 4.4 3.6 3.5 4.3 4.6 4.1 3.9 3.5 2.2 1.5 1.5 1.7 2.1 1.2 1.6 1.3 1.7 1.6 1.3 1.2 0.7 0.9 1.3 0.8 0.8 0.9 1.3 1.5 1.6 1.4 1.4 1.7
8.1 3.0 3.0 3.3 2.4 2.6 1.9 1.7 1.6 1.3 1.2 1.7 3.3 1.6 2.0 5.7 6.1 7.2 8.9 10.4 7.0 5.8 6.1 5.9 5.5 3.8 3.5 3.6 4.8 3.7 2.4 1.1 0.7 1.2 0.9 0.3 0.5 1.9 2.1 2.5 3.0 2.9 2.0 1.4 1.4 1.7 2.2 1.9 2.1 2.3 2.6 2.1 2.1 1.7
6.0 4.9 2.5 1.9 3.2 4.4 5.9 5.3 4.7 4.4 4.6 5.3 3.7 3.9 5.6 8.9 8.4 10.5 9.6 7.7 7.1 7.1 6.4 4.8 3.4 4.6 4.3 3.0 3.1 2.5 0.9 0.9 1.7 1.9 1.0 1.3 1.2 1.1 2.0 2.8 3.1 2.7 1.2 1.8 2.6 2.7 2.8 3.5 3.4 3.1 3.1 3.0 2.0 1.9
4.2 2.5 3.7 3.2 3.9 5.3 6.1 4.7 5.9 8.0 7.0 5.1 4.2 5.3 6.0 7.1 9.6 9.5 8.0 7.9 7.3 5.5 6.5 6.7 5.1 3.3 5.0 5.8 4.5 3.6 3.7 2.9 3.4 2.8 2.7 3.8 2.3 1.5 1.4 2.2 1.7 1.4 0.7 1.5 2.8 3.2 4.7 4.6 4.3 3.7 3.9 3.8 3.6 3.4
2.7 1.2 1.8 2.1 1.4 4.8 5.1 4.9 6.3 5.5 3.8 4.6 6.6 7.2 5.4 5.1 9.3 8.7 8.3 6.4 5.5 4.7 6.5 7.0 8.8 6.2 5.2 7.7 8.6 7.5 6.9 7.2 5.6 5.0 4.0 4.1 3.3 2.6 1.6 1.6 2.4 2.4 2.2 2.5 3.4 3.4 4.3 4.8 4.3 4.7 4.6 5.1 4.3 4.5
0.5 0.3 0.8 0.3 0.6 4.3 6.5 3.8 4.2 3.5 2.4 3.8 3.7 3.3 3.6 8.2 11.8 6.7 4.9 3.6 4.1 5.1 6.2 6.2 6.4 5.8 6.7 6.9 9.4 9.5 8.9 10.0 9.6 6.7 4.6 3.8 2.9 1.8 1.3 1.4 1.5 2.1 1.5 2.0 2.4 4.2 4.8 5.5 6.3 6.7 6.2 6.6 7.6 7.9
1.3 1.5 1.2 0.5 1.6 3.6 2.3 1.3 2.4 3.1 4.3 6.2 5.0 2.5 3.9 6.9 7.3 5.1 4.3 4.7 3.3 2.3 2.3 3.5 4.2 4.6 5.8 6.6 6.9 6.8 8.5 10.8 11.7 9.7 7.4 4.7 2.7 2.2 1.7 1.9 1.9 2.0 3.3 3.6 3.3 3.4 4.2 5.0 5.1 5.6 5.7 5.8 5.7 4.9
2.2 2.8 2.2 2.0 3.3 2.3 1.4 2.0 3.3 4.8 6.2 7.0 8.5 7.3 7.2 4.6 3.3 4.0 4.4 3.3 3.0 2.3 2.5 3.2 4.8 6.2 6.0 7.6 7.5 7.3 7.1 8.1 8.3 7.4 6.9 5.3 3.8 2.6 2.1 2.3 2.6 2.6 4.2 4.1 3.8 4.2 4.4 4.2 4.7 5.1 5.2 5.2 5.3 5.9
2.6 1.3 1.7 1.8 2.0 1.6 1.4 1.8 3.6 4.2 4.9 5.5 6.8 6.4 5.2 3.1 4.1 6.0 4.0 3.1 5.2 4.7 4.0 3.9 4.4 5.8 6.1 5.1 4.7 4.7 4.5 4.5 4.2 3.1 3.0 2.9 2.1 1.9 1.7 1.6 1.9 2.8 3.4 4.3 4.2 4.0 3.8 3.6 4.3 4.4 4.7 4.6 4.2 4.6

GFSWCAN_prec_snow_231.txt.gz
Snowfall_Accumulation
0.0 0.0 0.0 0.0 0.0 0.0 0.0 0.0 0.0 0.0 0.0 0.0 0.0 0.0 0.0 0.0 0.0 0.0 0.0 0.0 0.0 35.5 4.6 0.0 0.0 0.2 2.7 2.1 9.9 4.5 14.5 10.3 16.1 18.8 18.5 15.1 16.3 10.5 8.0 3.0 2.9 5.0 17.6 18.2 17.0 22.6 9.8 0.0 1.0 4.8 3.0 5.5 7.3 8.5
0.0 0.0 0.0 0.0 0.0 0.0 0.0 0.0 0.0 0.0 0.0 0.0 0.0 0.0 0.0 0.0 0.0 0.0 0.7 0.0 0.0 8.4 9.3 0.0 0.0 0.0 0.0 0.0 1.8 3.7 6.4 8.6 11.6 15.8 13.1 9.7 10.0 6.9 8.8 11.2 1.7 6.8 6.2 12.6 12.9 9.8 2.4 0.8 1.3 1.8 1.3 4.4 6.7 6.8
0.0 0.0 0.0 0.0 0.0 0.0 0.0 0.0 0.0 0.0 0.0 0.0 0.0 0.0 0.0 0.0 0.0 0.0 2.1 0.0 0.0 26.1 8.6 0.8 0.2 0.0 0.0 0.0 0.0 9.2 1.7 0.7 3.5 1.2 12.9 12.0 11.8 2.0 8.7 6.2 6.3 5.8 2.5 6.0 5.8 5.6 1.8 1.1 1.1 2.1 3.1 5.3 5.0 4.7
0.0 0.0 0.0 0.0 0.0 0.0 0.0 0.0 0.0 0.0 0.0 0.0 0.0 0.0 0.0 0.0 0.0 0.0 0.0 0.0 0.0 4.6 29.3 12.1 0.0 0.0 0.0 0.0 0.0 0.0 0.0 0.0 0.3 1.5 18.9 16.0 14.2 2.8 9.9 7.2 6.8 10.0 5.2 4.9 10.3 13.9 2.1 3.5 5.6 4.5 4.7 4.5 3.9 4.1
0.0 0.0 0.0 0.0 0.0 0.0 0.0 0.0 0.0 0.0 0.0 0.0 0.0 0.0 0.0 0.0 0.0 0.0 0.0 0.0 0.0 0.4 18.4 13.5 0.0 0.0 0.0 0.0 0.0 0.0 0.0 1.6 8.8 15.5 18.3 11.8 3.6 10.6 11.4 7.0 5.0 6.4 8.2 9.9 11.2 8.2 9.1 7.0 5.9 4.8 3.5 3.2 2.5 1.5
0.0 0.0 0.0 0.0 0.0 0.0 0.0 0.0 0.0 0.0 0.0 0.0 0.0 0.0 0.0 0.0 0.0 0.0 49.5 6.3 0.0 0.0 20.0 21.3 4.2 1.5 0.0 0.0 0.0 0.0 0.0 0.6 7.8 14.8 10.9 3.1 0.0 6.6 21.4 9.7 5.3 7.3 9.9 8.5 8.1 8.0 6.4 5.1 3.9 2.8 2.2 2.2 1.5 0.9
0.0 0.0 0.0 0.0 0.0 0.0 0.0 0.0 0.0 0.0 0.0 0.0 0.0 0.0 0.0 0.0 0.0 14.5 13.3 0.4 0.0 0.0 19.5 18.3 10.8 6.8 1.5 0.0 0.0 3.2 2.4 12.6 17.8 20.1 13.5 4.9 1.8 9.4 19.2 10.5 7.1 7.6 8.0 6.4 4.6 3.5 3.1 3.1 2.5 1.4 0.8 0.7 0.5 0.1
0.0 0.0 0.0 0.0 0.0 0.0 0.0 0.0 0.0 0.0 0.0 0.0 0.0 0.0 0.0 0.0 0.0 4.7 0.0 0.0 0.0 2.0 6.4 19.8 15.3 19.6 0.0 9.0 13.6 3.7 9.6 11.5 13.7 12.7 10.9 5.9 7.0 11.7 18.7 5.8 4.1 3.6 3.9 2.8 1.9 0.9 0.5 0.2 0.0 0.0 0.0 0.0 0.0 0.0
0.0 0.0 0.0 0.0 0.0 0.0 0.0 0.0 0.0 0.0 0.0 0.0 0.0 0.0 0.0 6.8 13.9 0.0 0.0 0.0 0.0 1.0 13.7 6.4 8.7 23.0 6.6 7.9 7.5 7.4 6.2 19.7 5.4 11.4 7.6 7.3 10.9 13.5 9.6 3.5 2.3 1.2 1.8 1.3 0.0 0.0 0.0 0.0 0.0 0.0 0.2 0.2 0.3 0.9
0.0 0.0 0.0 0.0 0.0 0.0 0.0 0.0 0.0 0.0 0.0 0.0 2.7 26.5 66.5 5.8 0.0 0.0 0.0 25.1 18.8 7.2 8.8 8.8 2.3 10.6 4.8 9.7 11.8 12.2 7.4 10.0 10.9 5.7 2.2 10.8 6.9 3.2 2.5 1.4 0.8 0.4 1.1 0.5 0.2 0.1 0.1 0.1 0.3 0.3 0.6 0.9 2.3 2.2
0.0 0.0 0.0 0.0 0.0 0.0 0.0 0.0 0.0 0.0 0.0 0.1 23.9 32.3 0.0 0.0 0.0 14.3 32.3 22.6 11.2 8.9 3.0 5.3 3.7 10.1 2.1 13.6 11.5 7.8 15.9 6.9 11.3 6.3 4.8 8.2 6.0 6.9 1.3 0.6 0.5 0.6 0.0 0.2 0.4 0.5 0.3 0.9 0.9 1.3 2.9 2.9 3.8 3.7
0.0 0.0 0.0 0.0 0.0 0.0 0.0 0.0 0.0 0.0 0.0 0.0 0.0 0.0 0.0 17.9 17.5 19.7 15.5 10.6 5.6 4.8 2.4 3.1 2.9 2.8 2.2 2.1 7.7 8.3 8.1 13.6 19.6 6.9 11.5 8.9 11.9 4.2 0.2 1.2 1.4 0.7 0.9 1.5 1.7 3.9 2.0 2.0 1.7 2.3 2.8 2.5 3.3 2.7
0.0 0.0 0.0 0.0 0.0 0.0 0.0 0.0 0.0 0.0 0.0 0.0 2.2 9.5 10.4 13.5 14.6 10.2 9.4 7.2 6.3 3.0 2.3 1.0 4.7 2.6 4.5 2.7 13.1 7.3 14.0 14.6 8.9 15.0 8.6 9.0 6.4 3.5 1.8 1.7 2.2 2.5 3.2 4.3 4.2 3.3 3.9 2.8 2.9 1.8 3.6 5.2 6.5 8.7
0.0 0.0 0.0 0.0 0.0 0.0 0.0 0.0 0.0 0.0 0.6 9.1 9.5 9.8 7.3 6.2 7.8 8.0 8.3 8.1 5.2 2.8 2.6 2.4 3.7 7.8 8.2 9.0 13.9 14.9 15.5 10.2 12.2 10.2 8.7 6.8 6.0 6.8 5.4 4.5 2.9 3.1 3.5 2.5 3.4 3.9 6.8 7.0 8.6 9.9 10.0 12.1 11.3 11.7
0.0 0.0 0.0 0.0 0.0 0.0 0.0 0.0 0.0 0.0 6.9 11.6 5.9 3.9 7.6 7.9 6.3 6.7 5.9 4.7 3.8 4.5 4.3 5.2 5.5 6.3 8.6 11.6 10.0 8.7 9.0 7.6 6.3 13.7 10.9 9.4 7.3 7.1 6.4 6.3 6.1 6.3 6.5 6.7 7.9 8.5 10.9 11.8 10.1 11.6 11.1 10.4 9.7 9.9
0.0 0.0 0.0 0.0 0.0 0.0 0.0 0.0 0.0 1.6 6.6 5.9 6.8 8.2 6.9 7.5 9.2 7.6 5.4 5.8 4.6 5.8 5.9 6.7 10.8 11.2 11.5 9.3 6.3 5.1 4.0 7.2 13.6 9.3 8.6 8.6 8.3 8.8 9.1 8.5 8.6 8.1 7.8 8.0 8.4 8.0 8.1 8.8 9.6 11.0 9.2 8.2 9.2 9.7
0.0 0.3 0.0 0.0 0.0 0.0 0.0 4.0 6.7 11.2 7.6 6.1 11.9 12.2 10.2 8.5 13.2 11.5 9.2 8.1 5.2 4.8 7.8 7.4 7.5 7.2 5.4 5.4 5.9 5.0 8.4 10.0 8.5 8.7 8.9 8.5 8.5 9.6 10.2 10.0 9.7 7.2 6.5 6.7 6.7 6.6 6.7 7.2 6.4 5.2 5.8 8.1 6.2 6.1
0.7 0.0 0.0 0.0 0.0 0.0 6.9 5.5 7.4 6.5 6.3 8.4 11.7 12.7 7.9 8.9 9.4 8.6 8.3 4.8 2.5 3.4 4.6 8.1 4.2 6.1 8.2 7.8 8.9 9.3 9.9 9.9 9.7 9.5 9.4 8.9 8.5 8.5 7.9 7.6 7.7 6.7 6.2 5.6 4.6 4.3 4.0 3.5 2.7 3.4 3.4 3.6 3.1 3.4
0.4 0.0 0.0 0.0 0.0 4.1 6.3 4.8 2.1 4.5 9.9 8.1 8.3 5.8 4.5 6.7 5.5 4.9 4.4 2.3 1.3 0.9 1.3 8.0 7.1 6.6 9.3 10.1 9.9 9.3 9.1 8.0 8.7 8.5 7.6 7.2 6.6 6.8 6.2 5.7 6.5 6.8 5.8 4.7 3.0 2.4 2.1 1.6 1.6 1.6 1.6 1.3 1.6 2.0
0.1 0.1 0.0 0.1 0.6 4.8 2.9 2.3 0.4 2.7 5.3 5.3 2.2 2.2 1.6 3.8 2.8 1.9 1.7 2.8 1.2 2.0 6.3 6.2 11.6 11.8 10.3 8.5 6.4 6.6 6.8 6.1 4.9 3.7 5.1 5.7 5.9 4.4 5.1 4.3 4.2 4.1 4.3 3.1 2.3 1.6 1.4 1.3 1.5 1.4 1.3 1.3 1.4 1.5
1.2 0.1 0.7 1.1 3.4 5.6 3.8 1.2 1.4 0.7 3.5 1.9 1.2 0.9 1.5 1.6 2.4 2.1 1.7 1.8 7.6 7.2 7.7 8.5 9.5 9.5 6.6 5.7 4.2 3.6 4.4 3.8 3.9 2.8 3.2 4.7 4.8 3.0 3.1 3.3 2.8 2.6 2.3 2.9 2.6 2.5 1.9 2.0 1.7 1.3 1.0 1.1 1.3 1.1
3.9 1.3 3.7 2.1 4.8 4.1 2.5 0.2 0.5 0.8 1.0 2.3 1.6 2.1 3.3 3.0 2.1 2.1 2.3 2.5 7.3 8.3 8.1 6.0 5.0 3.6 2.9 2.6 2.6 1.7 2.6 2.0 2.7 3.6 4.3 3.4 4.0 3.7 4.0 4.1 3.7 3.2 3.0 3.0 2.5 2.5 2.1 1.6 0.8 0.6 0.6 1.0 0.9 0.8
2.3 2.3 6.8 4.2 6.5 4.7 1.1 1.1 1.3 0.4 1.6 1.5 1.7 2.2 2.2 1.8 2.6 2.0 4.7 4.6 8.9 8.8 6.0 3.4 2.7 1.8 1.9 2.3 1.3 1.2 1.2 0.8 1.4 1.8 2.4 2.8 2.8 2.9 2.7 2.8 2.9 2.5 2.3 2.2 1.3 0.9 0.7 0.4 0.2 0.3 0.5 0.8 1.1 1.6
5.1 7.7 6.0 2.9 2.5 3.9 2.4 2.3 1.6 1.5 1.1 1.5 2.5 2.8 2.2 2.7 4.8 7.4 7.4 5.9 8.5 4.5 3.1 4.0 3.5 2.5 2.0 2.1 2.1 2.3 2.6 1.9 2.0 2.2 2.6 2.4 2.6 2.9 1.7 1.4 1.1 0.8 0.6 0.2 0.1 0.1 0.4 0.9 0.8 1.1 0.8 1.1 1.2 1.0
9.2 9.5 7.9 4.5 1.9 2.2 1.2 1.6 2.4 2.6 1.9 0.7 1.6 2.1 2.8 3.2 6.4 5.4 4.4 7.9 6.9 4.7 4.4 3.6 3.5 4.3 4.6 4.1 3.9 3.5 2.2 1.5 1.5 1.7 2.1 1.2 1.6 1.3 1.7 1.6 1.3 1.2 0.7 0.9 1.3 0.8 0.9 0.9 1.3 1.5 1.7 1.4 1.4 1.7
8.1 3.0 3.0 3.3 2.4 2.6 1.9 1.7 1.6 1.3 1.2 1.7 3.3 1.6 2.0 5.7 6.1 7.2 8.9 10.4 7.0 5.8 6.1 5.9 5.6 3.8 3.5 3.6 4.8 3.7 2.4 1.1 0.7 1.3 0.9 0.3 0.5 1.9 2.1 2.5 3.0 2.9 2.0 1.4 1.4 1.7 2.2 1.9 2.1 2.4 2.7 2.1 2.1 1.7
6.0 4.9 2.5 1.9 3.4 4.4 5.9 5.3 4.7 4.5 4.7 5.4 3.7 3.9 5.7 8.9 8.4 10.5 9.6 7.7 7.1 7.1 6.4 4.8 3.6 4.7 4.4 3.0 3.1 2.5 0.9 0.9 1.7 1.9 1.0 1.3 1.2 1.1 2.0 2.8 3.1 2.7 1.2 1.8 2.6 2.7 2.8 3.5 3.4 3.1 3.2 3.0 2.0 1.9
4.2 2.5 3.7 3.2 4.0 5.3 6.1 4.7 5.9 8.0 7.0 5.1 4.2 5.3 6.0 7.1 9.6 9.5 8.0 7.9 7.3 5.5 6.5 6.7 5.1 3.7 5.3 6.1 4.8 3.9 3.8 2.9 3.4 3.1 3.3 4.7 3.0 1.9 1.6 2.3 1.7 1.4 0.7 1.5 2.8 3.2 4.7 4.6 4.3 3.7 3.9 3.8 3.6 3.4
2.9 1.3 1.8 2.1 1.4 4.8 5.1 4.9 6.3 5.5 3.8 4.7 6.6 7.2 5.4 5.1 9.3 8.7 8.3 6.4 5.5 4.7 6.5 7.0 8.8 6.2 5.2 8.1 9.0 8.0 7.5 8.0 6.6 6.1 4.8 4.9 4.6 3.7 1.9 1.6 2.4 2.4 2.2 2.5 3.4 3.4 4.3 4.8 4.3 4.7 4.6 5.1 4.3 4.5
0.6 0.3 0.8 0.3 0.6 4.3 6.5 3.8 4.2 3.7 2.8 4.1 3.8 3.3 3.6 8.2 11.8 6.7 4.9 3.6 4.1 5.1 6.2 6.2 6.4 6.0 7.1 7.4 10.0 10.0 9.7 11.0 10.7 7.9 5.6 4.5 3.7 2.0 1.3 1.4 1.5 2.1 1.5 2.0 2.4 4.2 4.8 5.5 6.3 6.7 6.2 6.6 7.6 7.9
1.3 1.6 1.3 0.5 1.6 3.6 2.3 1.3 2.4 3.3 4.5 6.3 5.1 2.5 3.9 6.9 7.3 5.1 4.3 4.7 3.3 2.3 2.3 3.5 4.2 4.6 6.2 7.2 8.0 7.9 9.5 12.0 13.5 11.8 10.0 6.7 3.7 2.6 1.8 1.9 1.9 2.0 3.3 3.6 3.3 3.4 4.2 5.0 5.1 5.6 5.7 5.8 5.7 4.9
2.2 2.8 2.2 2.0 3.3 2.3 1.5 2.0 3.5 5.0 6.3 7.2 8.6 7.4 7.2 4.6 3.3 4.0 4.4 3.3 3.0 2.3 2.5 3.2 4.9 6.2 6.5 8.3 8.4 8.4 8.1 9.2 10.1 10.3 11.2 8.3 5.3 3.3 2.5 2.3 2.6 2.6 4.2 4.1 3.8 4.2 4.4 4.2 4.7 5.2 5.3 5.3 5.4 6.1
2.6 1.3 1.7 1.8 2.0 1.6 1.4 1.8 3.8 4.4 5.0 5.7 6.9 6.4 5.3 3.1 4.1 6.0 4.0 3.1 5.2 4.7 4.0 3.9 4.4 5.8 6.4 5.6 5.2 5.4 5.2 5.6 5.7 5.3 5.5 4.8 3.5 2.8 2.2 1.9 2.0 2.8 3.4 4.3 4.2 4.0 3.8 3.6 4.3 4.4 4.8 4.7 4.2 4.6

GFSWCAN_prec_snow_237.txt.gz
Snowfall_Accumulation
0.0 0.0 0.0 0.0 0.0 0.0 0.0 0.0 0.0 0.0 0.0 0.0 0.0 0.0 0.0 0.0 0.0 0.0 0.0 0.0 0.0 35.9 4.7 0.0 0.0 0.2 2.7 2.1 10.0 4.5 14.6 10.4 16.3 19.1 18.7 15.2 16.4 10.6 8.1 3.0 2.9 5.2 18.2 18.8 17.8 23.3 10.0 0.0 1.0 4.8 3.0 5.5 7.3 8.5
0.0 0.0 0.0 0.0 0.0 0.0 0.0 0.0 0.0 0.0 0.0 0.0 0.0 0.0 0.0 0.0 0.0 0.0 0.7 0.0 0.0 8.7 9.4 0.0 0.0 0.0 0.0 0.0 1.8 3.8 6.4 8.7 11.7 16.0 13.5 10.2 10.3 7.1 8.9 11.2 1.7 6.8 6.2 12.6 12.9 10.0 2.4 0.8 1.3 1.8 1.3 4.4 6.7 6.8
0.0 0.0 0.0 0.0 0.0 0.0 0.0 0.0 0.0 0.0 0.0 0.0 0.0 0.0 0.0 0.0 0.0 0.0 2.1 0.0 0.0 26.2 8.6 0.8 0.2 0.0 0.0 0.0 0.0 9.5 1.8 0.7 3.6 1.2 13.4 12.4 12.0 2.0 8.7 6.2 6.3 5.8 2.5 6.0 5.9 5.6 1.8 1.1 1.1 2.1 3.1 5.3 5.0 4.7
0.0 0.0 0.0 0.0 0.0 0.0 0.0 0.0 0.0 0.0 0.0 0.0 0.0 0.0 0.0 0.0 0.0 0.0 0.0 0.0 0.0 4.7 29.4 12.1 0.0 0.0 0.0 0.0 0.0 0.0 0.0 0.0 0.3 1.6 19.9 16.5 14.5 2.9 9.9 7.2 6.9 10.0 5.2 4.9 10.3 13.9 2.1 3.5 5.6 4.5 4.7 4.5 3.9 4.1
0.0 0.0 0.0 0.0 0.0 0.0 0.0 0.0 0.0 0.0 0.0 0.0 0.0 0.0 0.0 0.0 0.0 0.0 0.0 0.0 0.0 0.4 18.5 13.5 0.0 0.0 0.0 0.0 0.0 0.0 0.0 1.8 9.3 16.4 19.0 12.1 3.7 11.1 11.6 7.2 5.0 6.4 8.2 10.1 11.3 8.2 9.1 7.0 5.9 4.8 3.5 3.2 2.5 1.5
0.0 0.0 0.0 0.0 0.0 0.0 0.0 0.0 0.0 0.0 0.0 0.0 0.0 0.0 0.0 0.0 0.0 0.0 50.0 6.3 0.0 0.0 20.9 21.3 4.2 1.5 0.0 0.0 0.0 0.0 0.0 0.7 8.2 15.5 11.2 3.1 0.0 7.2 22.0 9.7 5.3 7.3 9.9 8.5 8.1 8.0 6.4 5.1 3.9 2.8 2.2 2.2 1.5 0.9
0.0 0.0 0.0 0.0 0.0 0.0 0.0 0.0 0.0 0.0 0.0 0.0 0.0 0.0 0.0 0.0 0.0 14.8 13.4 0.4 0.0 0.0 20.2 18.5 10.8 6.8 1.5 0.0 0.0 3.2 2.5 12.8 18.1 20.6 13.8 4.9 1.8 10.4 20.3 10.6 7.1 7.6 8.0 6.4 4.6 3.5 3.1 3.1 2.5 1.4 0.8 0.7 0.5 0.1
0.0 0.0 0.0 0.0 0.0 0.0 0.0 0.0 0.0 0.0 0.0 0.0 0.0 0.0 0.0 0.0 0.0 4.8 0.0 0.0 0.0 2.3 7.0 20.1 15.3 19.6 0.0 9.0 13.6 3.7 9.7 11.8 14.0 13.0 11.0 6.1 7.4 12.5 19.4 5.8 4.1 3.6 3.9 2.8 1.9 0.9 0.5 0.2 0.0 0.0 0.0 0.0 0.0 0.0
0.0 0.0 0.0 0.0 0.0 0.0 0.0 0.0 0.0 0.0 0.0 0.0 0.0 0.0 0.0 6.8 14.3 0.0 0.0 0.0 0.0 1.4 14.5 6.7 8.7 23.0 6.6 7.9 7.6 7.6 6.3 20.3 5.7 12.1 7.8 7.3 11.4 14.2 9.6 3.5 2.3 1.2 1.8 1.3 0.0 0.0 0.0 0.0 0.0 0.0 0.2 0.2 0.3 0.9
0.0 0.0 0.0 0.0 0.0 0.0 0.0 0.0 0.0 0.0 0.0 0.0 2.7 26.7 66.7 5.9 0.0 0.0 0.5 25.7 19.6 7.8 9.6 9.0 2.3 10.6 4.8 9.8 12.2 12.6 7.6 10.4 11.6 6.0 2.3 11.4 6.9 3.2 2.5 1.4 0.8 0.4 1.1 0.5 0.2 0.1 0.1 0.1 0.3 0.3 0.6 0.9 2.4 2.2
0.0 0.0 0.0 0.0 0.0 0.0 0.0 0.0 0.0 0.0 0.0 0.1 24.1 32.5 0.0 0.0 0.3 14.7 33.1 23.1 11.3 9.2 3.1 5.3 3.7 10.1 2.1 13.6 11.6 8.0 16.3 7.2 11.6 6.5 5.1 8.4 6.1 6.9 1.3 0.6 0.5 0.6 0.0 0.2 0.4 0.5 0.3 0.9 0.9 1.3 2.9 2.9 3.8 4.0
0.0 0.0 0.0 0.0 0.0 0.0 0.0 0.0 0.0 0.0 0.0 0.0 0.0 0.0 0.0 18.2 18.0 20.3 16.1 11.0 5.8 4.8 2.4 3.1 2.9 2.8 2.2 2.1 7.8 8.5 8.3 13.9 19.9 7.3 11.9 8.9 12.1 4.2 0.2 1.2 1.4 0.7 0.9 1.5 1.7 3.9 2.0 2.0 1.7 2.4 2.8 2.6 3.8 3.3
0.0 0.0 0.0 0.0 0.0 0.0 0.0 0.0 0.0 0.0 0.0 0.0 2.2 9.5 10.4 13.7 14.9 10.4 9.4 7.4 6.5 3.1 2.4 1.0 4.8 2.7 4.5 2.7 13.4 7.7 14.6 15.1 9.3 15.4 8.8 9.0 6.7 3.5 1.8 1.7 2.2 2.5 3.2 4.3 4.2 3.3 3.9 2.8 2.9 1.8 3.6 6.0 7.7 9.3
0.0 0.0 0.0 0.0 0.0 0.0 0.0 0.0 0.0 0.0 0.7 9.2 9.5 9.9 7.3 6.2 7.8 8.0 8.3 8.1 5.4 3.0 2.9 2.8 4.2 8.2 8.7 10.0 14.1 16.3 16.6 10.9 12.7 10.5 8.7 7.5 6.0 6.8 5.4 4.5 2.9 3.1 3.5 2.5 3.4 3.9 6.8 7.0 8.6 9.9 10.2 12.8 13.1 12.3
0.0 0.0 0.0 0.0 0.0 0.0 0.0 0.0 0.0 0.0 7.1 11.6 5.9 3.9 7.6 7.9 6.3 6.7 5.9 4.7 3.9 4.5 4.4 5.6 6.0 7.0 9.4 12.6 10.8 9.0 9.4 7.9 6.4 14.0 11.7 9.8 7.3 7.1 6.4 6.3 6.1 6.3 6.5 6.7 7.9 8.5 10.9 11.8 10.1 11.6 11.6 11.4 12.1 11.1
0.0 0.0 0.0 0.0 0.0 0.0 0.0 0.0 0.0 2.3 7.3 6.1 6.8 8.2 6.9 7.5 9.2 7.6 5.5 5.9 4.6 5.8 6.0 6.8 11.0 11.5 11.7 9.3 6.5 5.3 4.1 7.3 13.9 9.7 8.6 8.6 8.3 8.8 9.1 8.5 8.6 8.1 7.8 8.0 8.4 8.0 8.1 8.8 9.6 11.2 9.4 8.8 11.4 12.1
0.0 1.1 0.0 0.0 0.0 0.0 0.0 5.1 8.0 11.9 7.8 6.2 12.0 12.2 10.2 8.5 13.3 11.6 9.3 8.1 5.2 4.8 7.9 7.5 7.9 7.7 6.1 6.4 6.5 5.6 9.1 10.6 8.7 8.7 8.9 8.5 8.5 9.6 10.2 10.0 9.7 7.2 6.5 6.7 6.7 6.6 6.7 7.2 6.4 5.4 6.0 8.7 8.4 9.1
0.9 0.0 0.0 0.0 0.0 0.0 8.5 6.1 8.0 6.9 6.7 8.5 11.7 12.8 7.9 8.9 9.4 8.6 8.3 4.8 2.5 3.4 4.6 8.1 4.2 6.1 8.3 7.8 9.4 10.5 11.0 10.7 10.2 9.6 9.4 8.9 8.5 8.5 7.9 7.6 7.7 6.7 6.2 5.6 4.6 4.3 4.0 3.5 2.7 3.4 3.4 4.2 4.2 5.6
0.4 0.0 0.0 0.0 0.0 4.9 7.1 5.3 2.4 4.8 10.0 8.2 8.3 5.8 4.5 6.7 5.5 4.9 4.4 2.3 1.3 0.9 1.3 8.0 7.1 6.6 9.3 10.1 9.9 9.3 9.2 8.0 8.7 8.5 7.6 7.2 6.6 6.8 6.2 5.7 6.5 6.8 5.8 4.7 3.0 2.4 2.1 1.6 1.6 1.6 1.6 1.3 2.0 2.5
0.1 0.1 0.0 0.1 0.6 5.0 2.9 2.4 0.4 2.8 5.4 5.3 2.2 2.2 1.6 3.8 2.8 1.9 1.7 2.8 1.2 2.0 6.5 6.3 11.6 11.8 10.3 8.5 6.6 6.6 6.8 6.1 4.9 3.7 5.1 5.7 5.9 4.4 5.1 4.3 4.2 4.1 4.3 3.1 2.3 1.6 1.4 1.3 1.5 1.4 1.3 1.3 1.5 1.5
1.4 0.2 0.7 1.1 3.6 5.7 3.9 1.3 1.4 0.8 3.5 1.9 1.2 0.9 1.5 1.6 2.4 2.1 1.7 1.8 7.6 7.2 7.8 8.5 9.5 9.5 6.6 5.7 4.2 3.6 4.4 3.8 3.9 2.8 3.2 4.7 4.8 3.0 3.1 3.3 2.8 2.6 2.3 2.9 2.6 2.5 1.9 2.0 1.7 1.3 1.0 1.1 1.3 1.2
4.3 1.4 4.3 2.6 5.1 4.4 2.6 0.3 0.6 0.8 1.0 2.3 1.6 2.1 3.4 3.0 2.1 2.1 2.3 2.5 7.3 8.3 8.1 6.0 5.0 3.6 2.9 2.6 2.6 1.7 2.6 2.0 2.7 3.6 4.3 3.4 4.0 3.7 4.0 4.1 3.7 3.2 3.0 3.0 2.5 2.5 2.1 1.6 0.8 0.6 0.6 1.1 0.9 0.8
2.3 2.3 6.8 4.2 6.5 4.7 1.2 1.1 1.4 0.4 1.6 1.5 1.7 2.2 2.2 1.8 2.6 2.0 4.7 4.6 8.9 8.8 6.0 3.4 2.7 1.8 1.9 2.3 1.3 1.2 1.2 0.8 1.4 1.8 2.4 2.8 2.8 2.9 2.7 2.8 2.9 2.5 2.4 2.2 1.3 0.9 0.7 0.4 0.2 0.3 0.5 0.8 1.1 1.7
5.1 7.7 6.0 2.9 2.5 4.0 2.4 2.4 1.7 1.5 1.1 1.6 2.5 2.8 2.2 2.7 4.8 7.5 7.4 5.9 8.6 4.5 3.1 4.0 3.5 2.5 2.0 2.1 2.1 2.3 2.6 1.9 2.0 2.2 2.6 2.4 2.6 2.9 1.7 1.4 1.1 0.8 0.7 0.2 0.1 0.1 0.4 0.9 0.8 1.1 0.8 1.2 1.2 1.0
9.2 9.5 8.1 4.6 2.0 2.2 1.2 1.6 2.4 2.6 2.0 0.7 1.7 2.2 2.8 3.2 6.6 5.5 4.4 8.0 7.0 4.7 4.4 3.6 3.5 4.3 4.6 4.1 3.9 3.5 2.2 1.5 1.5 1.7 2.1 1.2 1.6 1.3 1.7 1.6 1.3 1.2 0.7 0.9 1.4 0.8 0.9 0.9 1.4 1.5 1.7 1.6 1.5 1.7
8.1 3.0 3.1 3.4 2.5 2.7 2.0 1.7 1.7 1.3 1.3 1.7 3.3 1.6 2.0 5.9 6.3 7.3 9.0 10.4 7.0 5.8 6.1 6.0 5.6 3.8 3.5 3.6 4.8 3.7 2.4 1.1 0.7 1.4 0.9 0.3 0.5 2.0 2.1 2.5 3.1 2.9 2.0 1.4 1.5 1.7 2.3 1.9 2.1 2.5 2.9 2.1 2.1 1.7
6.0 4.9 2.5 1.9 3.5 4.5 5.9 5.4 4.8 4.7 4.9 5.6 3.9 4.1 6.0 9.3 8.7 10.6 9.6 7.7 7.1 7.1 6.4 4.8 3.6 4.8 4.4 3.1 3.1 2.5 0.9 0.9 1.7 1.9 1.0 1.3 1.3 1.1 2.0 2.9 3.2 2.7 1.2 1.8 2.6 2.7 3.0 3.5 3.4 3.1 3.2 3.1 2.0 1.9
4.2 2.5 3.7 3.2 4.0 5.5 6.3 5.0 6.0 8.1 7.2 5.2 4.3 5.6 6.3 7.3 9.7 9.5 8.0 7.9 7.3 5.5 6.5 6.7 5.1 3.7 5.4 6.1 4.8 4.1 3.9 3.0 3.5 3.2 3.4 4.8 3.0 1.9 1.7 2.3 1.7 1.8 0.7 1.5 2.8 3.6 4.9 4.6 4.3 3.7 4.0 3.8 3.7 3.5
3.1 1.3 1.8 2.1 1.4 5.0 5.3 5.1 6.4 5.6 3.8 4.7 7.1 7.6 5.7 5.1 9.3 8.8 8.3 6.4 5.5 4.7 6.5 7.0 8.8 6.2 5.2 8.1 9.0 8.4 8.1 8.7 7.3 6.5 5.0 5.0 4.7 3.7 2.0 1.7 3.1 3.0 2.2 2.5 3.4 3.8 4.4 4.8 4.3 4.7 4.6 5.2 4.4 4.5
0.7 0.4 0.9 0.3 0.6 4.3 6.7 4.0 4.5 4.0 2.8 4.1 3.9 3.3 3.8 8.4 11.9 6.7 4.9 3.6 4.1 5.1 6.2 6.2 6.4 6.1 7.2 7.4 10.0 10.0 9.7 11.7 12.0 9.5 6.8 5.3 4.4 2.7 2.4 2.2 2.1 2.5 1.5 2.4 2.7 4.4 4.8 5.5 6.3 6.7 6.2 6.7 7.7 7.9
1.3 1.7 1.5 0.7 1.7 3.8 2.6 1.4 2.4 3.4 4.7 6.5 5.3 2.6 4.1 7.0 7.4 5.1 4.3 4.7 3.3 2.4 2.4 3.6 4.2 4.6 6.3 7.4 8.5 8.4 10.0 12.3 14.1 13.2 12.2 9.4 6.7 5.1 3.7 3.1 2.8 2.6 3.8 3.8 3.4 3.4 4.2 5.0 5.2 5.7 5.8 5.9 5.7 5.1
2.3 2.8 2.4 2.0 3.3 2.5 1.5 2.1 3.8 5.3 6.7 7.4 8.8 7.6 7.4 4.8 3.5 4.1 4.4 3.3 3.0 2.3 2.5 3.2 4.9 6.2 6.6 8.3 9.0 9.3 9.4 10.6 11.5 12.1 13.8 11.4 8.8 6.9 5.0 4.0 3.7 3.4 4.7 4.2 3.9 4.2 4.4 4.3 4.7 5.3 5.4 5.5 5.5 6.3
2.6 1.3 1.7 1.8 2.0 1.6 1.6 1.9 4.2 4.8 5.4 6.0 7.2 6.6 5.5 3.3 4.3 6.1 4.0 3.1 5.3 4.8 4.1 4.0 4.4 5.9 6.5 5.6 5.6 5.9 6.0 6.9 7.6 7.9 9.2 9.0 7.9 6.3 5.1 4.3 3.5 3.3 3.5 4.3 4.2 4.2 4.0 3.7 4.5 4.7 4.9 4.8 4.4 4.7

GFSWCAN_prec_snow_243.txt.gz
Snowfall_Accumulation
0.0 0.0 0.0 0.0 0.0 0.0 0.0 0.0 0.0 0.0 0.0 0.0 0.0 0.0 0.0 0.0 0.0 0.0 0.0 0.0 0.0 35.9 4.7 0.0 0.0 0.2 2.7 2.1 10.0 4.5 14.6 10.4 16.3 19.2 18.8 15.3 16.5 10.6 8.1 3.0 2.9 5.2 18.3 19.0 17.8 23.9 10.3 0.0 1.0 4.8 3.0 5.5 7.3 8.5
0.0 0.0 0.0 0.0 0.0 0.0 0.0 0.0 0.0 0.0 0.0 0.0 0.0 0.0 0.0 0.0 0.0 0.0 0.7 0.0 0.0 8.7 9.4 0.0 0.0 0.0 0.0 0.0 1.8 3.8 6.4 8.7 11.8 16.1 13.8 10.5 10.4 7.2 9.0 11.3 1.7 6.8 6.2 12.8 12.9 10.0 2.4 0.8 1.3 1.8 1.3 4.4 6.7 6.8
0.0 0.0 0.0 0.0 0.0 0.0 0.0 0.0 0.0 0.0 0.0 0.0 0.0 0.0 0.0 0.0 0.0 0.0 2.1 0.0 0.0 26.2 8.6 0.8 0.2 0.0 0.0 0.0 0.0 9.5 1.8 0.7 3.6 1.2 13.4 12.5 12.1 2.0 8.7 6.2 6.3 5.8 2.5 6.0 5.9 5.6 1.8 1.1 1.1 2.1 3.1 5.3 5.0 4.7
0.0 0.0 0.0 0.0 0.0 0.0 0.0 0.0 0.0 0.0 0.0 0.0 0.0 0.0 0.0 0.0 0.0 0.0 0.0 0.0 0.0 4.7 29.4 12.1 0.0 0.0 0.0 0.0 0.0 0.0 0.0 0.0 0.3 1.6 20.2 16.8 14.7 3.0 9.9 7.2 6.9 10.0 5.2 4.9 10.3 13.9 2.1 3.5 5.6 4.5 4.7 4.5 3.9 4.1
0.0 0.0 0.0 0.0 0.0 0.0 0.0 0.0 0.0 0.0 0.0 0.0 0.0 0.0 0.0 0.0 0.0 0.0 0.0 0.0 0.0 0.4 18.5 13.5 0.0 0.0 0.0 0.0 0.0 0.0 0.0 1.8 9.4 16.7 19.3 12.3 3.8 11.1 11.6 7.2 5.0 6.4 8.2 10.3 11.3 8.2 9.3 7.0 5.9 4.8 3.5 3.2 2.5 1.5
0.0 0.0 0.0 0.0 0.0 0.0 0.0 0.0 0.0 0.0 0.0 0.0 0.0 0.0 0.0 0.0 0.0 0.0 50.2 6.3 0.0 0.0 21.0 21.3 4.2 1.5 0.0 0.0 0.0 0.0 0.0 0.7 8.2 15.8 11.3 3.1 0.0 7.3 22.4 9.7 5.3 7.3 9.9 8.5 8.1 8.0 6.4 5.1 3.9 2.8 2.2 2.2 1.5 0.9
0.0 0.0 0.0 0.0 0.0 0.0 0.0 0.0 0.0 0.0 0.0 0.0 0.0 0.0 0.0 0.0 0.0 14.8 13.5 0.4 0.0 0.0 20.3 18.6 10.8 6.8 1.5 0.0 0.0 3.2 2.5 12.8 18.4 20.9 14.0 5.0 1.8 10.5 20.8 10.6 7.1 7.6 8.0 6.4 4.6 3.5 3.1 3.1 2.5 1.4 0.8 0.7 0.5 0.1
0.0 0.0 0.0 0.0 0.0 0.0 0.0 0.0 0.0 0.0 0.0 0.0 0.0 0.0 0.0 0.0 0.0 5.0 0.0 0.0 0.0 2.3 7.0 20.1 15.3 19.6 0.0 9.0 13.6 3.7 9.9 11.8 14.1 13.2 11.1 6.1 7.4 12.6 19.6 5.8 4.1 3.6 3.9 2.8 1.9 0.9 0.5 0.2 0.0 0.0 0.0 0.0 0.0 0.0
0.0 0.0 0.0 0.0 0.0 0.0 0.0 0.0 0.0 0.0 0.0 0.0 0.0 0.0 0.0 6.8 14.9 0.0 0.0 0.0 0.0 1.4 14.7 6.8 8.7 23.0 6.6 7.9 7.6 7.7 6.5 20.4 5.7 12.3 7.8 7.4 11.5 14.4 9.6 3.5 2.3 1.2 1.8 1.3 0.0 0.0 0.0 0.0 0.0 0.0 0.2 0.2 0.3 0.9
0.0 0.0 0.0 0.0 0.0 0.0 0.0 0.0 0.0 0.0 0.0 0.0 2.7 27.0 67.0 6.1 0.0 0.0 0.5 26.3 20.0 8.1 9.8 9.1 2.3 10.6 4.8 9.9 12.5 13.0 8.0 10.4 12.1 6.1 2.3 11.7 6.9 3.2 2.5 1.4 0.8 0.4 1.1 0.5 0.2 0.1 0.1 0.1 0.3 0.3 0.6 0.9 2.4 2.2
0.0 0.0 0.0 0.0 0.0 0.0 0.0 0.0 0.0 0.0 0.0 0.1 24.4 32.8 0.0 0.0 0.3 14.8 33.3 23.4 11.3 9.4 3.1 5.3 3.7 10.1 2.1 13.7 11.7 8.6 17.2 7.5 11.8 6.6 5.4 8.7 6.1 6.9 1.3 0.6 0.5 0.6 0.0 0.2 0.4 0.5 0.3 0.9 0.9 1.3 2.9 2.9 3.8 4.0
0.0 0.0 0.0 0.0 0.0 0.0 0.0 0.0 0.0 0.0 0.0 0.0 0.0 0.0 0.0 18.3 18.2 20.4 16.6 11.1 5.8 4.8 2.4 3.1 2.9 2.8 2.2 2.1 7.9 8.6 8.4 14.0 19.9 7.7 12.5 9.1 12.1 4.2 0.2 1.2 1.4 0.7 0.9 1.5 1.7 3.9 2.0 2.0 1.7 2.4 2.8 2.6 3.9 3.3
0.0 0.0 0.0 0.0 0.0 0.0 0.0 0.0 0.0 0.0 0.0 0.0 2.2 9.5 10.5 13.8 15.3 10.4 9.5 7.5 6.5 3.1 2.4 1.0 4.8 2.7 4.7 2.7 13.4 7.8 14.9 15.2 9.3 15.7 8.8 9.0 6.7 3.5 1.8 1.7 2.2 2.5 3.2 4.3 4.2 3.3 3.9 2.8 2.9 1.8 3.6 6.0 7.7 9.6
0.0 0.0 0.0 0.0 0.0 0.0 0.0 0.0 0.0 0.0 0.7 9.2 9.5 9.9 7.4 6.2 7.8 8.0 8.3 8.1 5.4 3.0 3.0 2.9 4.4 8.4 8.9 10.1 14.3 16.6 16.6 11.1 12.9 10.6 8.7 8.2 6.0 6.8 5.4 4.5 2.9 3.1 3.5 2.5 3.4 3.9 6.8 7.0 8.6 9.9 10.2 12.8 13.1 12.7
0.0 0.0 0.0 0.0 0.0 0.0 0.0 0.0 0.0 0.0 7.4 11.6 5.9 4.0 7.6 7.9 6.3 6.7 5.9 4.9 3.9 4.5 4.4 5.6 6.6 7.3 9.7 13.1 11.0 9.0 9.4 8.1 6.5 14.4 12.7 10.2 7.3 7.1 6.4 6.3 6.1 6.3 6.5 6.7 7.9 8.5 10.9 11.8 10.1 11.6 11.6 11.4 12.1 11.6
0.0 0.0 0.0 0.0 0.0 0.0 0.0 0.0 0.0 2.3 7.7 6.4 6.8 8.2 6.9 7.5 9.2 7.6 5.5 5.9 4.6 5.8 7.7 7.8 12.4 12.7 12.9 9.9 6.7 5.3 4.2 7.4 14.6 10.7 9.1 8.6 8.3 8.8 9.1 8.5 8.6 8.1 7.8 8.0 8.4 8.0 8.1 8.8 9.6 11.2 9.4 8.8 11.4 12.7
0.0 1.8 0.0 0.0 0.0 0.0 0.0 8.0 9.6 12.5 8.0 6.3 12.0 12.2 10.2 8.5 13.4 11.7 9.3 8.1 5.2 4.9 8.6 8.2 8.2 7.7 6.2 6.5 6.6 5.6 9.1 10.9 9.2 9.1 8.9 8.5 8.5 9.6 10.2 10.0 9.7 7.2 6.5 6.7 6.7 6.6 6.7 7.2 6.4 5.4 6.0 8.7 8.4 9.1
0.9 0.0 0.0 0.0 0.0 0.0 12.0 8.0 8.3 6.9 6.9 8.6 11.8 12.8 7.9 8.9 9.4 8.6 8.3 4.8 2.5 3.4 4.6 8.2 4.2 6.1 8.4 7.9 9.5 11.4 11.6 11.0 10.4 9.6 9.4 8.9 8.5 8.5 7.9 7.6 7.7 6.7 6.2 5.6 4.6 4.3 4.0 3.5 2.7 3.4 3.4 4.2 4.2 5.6
0.4 0.0 0.0 0.0 0.0 7.1 9.4 6.7 2.6 5.3 10.1 8.2 8.3 5.8 4.5 6.7 5.5 4.9 4.4 2.3 1.3 0.9 1.3 8.0 7.1 6.6 9.3 10.1 9.9 9.4 9.2 8.2 9.0 8.5 7.6 7.2 6.6 6.8 6.2 5.7 6.5 6.8 5.8 4.7 3.0 2.4 2.1 1.6 1.6 1.6 1.6 1.3 2.0 2.5
0.1 0.1 0.0 0.1 0.6 5.5 3.1 3.1 0.4 3.4 5.7 5.5 2.3 2.2 1.6 3.8 2.8 1.9 1.7 2.8 1.2 2.0 6.5 6.3 11.6 11.8 10.3 8.5 6.6 6.7 6.8 6.1 4.9 3.7 5.1 5.7 5.9 4.4 5.1 4.3 4.2 4.1 4.3 3.1 2.3 1.6 1.4 1.3 1.5 1.4 1.3 1.3 1.5 1.5
1.4 0.2 0.7 1.1 4.8 6.3 4.0 1.5 1.4 0.8 3.6 1.9 1.2 0.9 1.5 1.6 2.4 2.1 1.7 1.8 7.7 7.2 7.8 8.5 9.5 9.5 6.6 5.7 4.2 3.6 4.4 3.8 3.9 2.8 3.2 4.7 4.8 3.0 3.1 3.3 2.8 2.6 2.4 3.0 2.6 2.6 1.9 2.0 1.7 1.3 1.0 1.1 1.3 1.2
8.2 1.4 7.4 4.0 6.2 4.7 2.7 0.3 0.6 0.9 1.0 2.3 1.6 2.1 3.4 3.0 2.2 2.1 2.3 2.5 7.3 8.3 8.1 6.0 5.0 3.6 2.9 2.6 2.6 1.7 2.6 2.0 2.7 3.6 4.3 3.4 4.0 3.7 4.0 4.1 3.7 3.2 3.0 3.1 2.6 2.5 2.1 1.6 0.8 0.6 0.6 1.1 0.9 0.8
2.6 2.9 7.2 4.7 6.9 4.7 1.6 1.1 1.4 0.4 1.6 1.5 1.7 2.2 2.2 1.8 2.6 2.0 4.7 4.6 8.9 8.8 6.0 3.4 2.7 1.8 1.9 2.3 1.3 1.2 1.2 0.8 1.4 1.8 2.4 2.8 2.8 2.9 2.7 2.8 2.9 2.5 2.4 2.2 1.3 0.9 0.7 0.4 0.3 0.3 0.6 0.8 1.1 1.7
5.1 7.8 6.3 3.0 2.6 4.1 2.4 2.4 1.7 1.5 1.1 1.6 2.5 2.8 2.2 2.7 4.8 7.5 7.4 5.9 8.6 4.5 3.1 4.0 3.5 2.5 2.0 2.1 2.1 2.3 2.6 1.9 2.0 2.2 2.6 2.4 2.6 2.9 1.7 1.4 1.1 0.8 0.7 0.2 0.2 0.3 0.4 0.9 0.8 1.1 0.9 1.2 1.2 1.2
9.3 9.6 8.1 4.6 2.0 2.2 1.2 1.6 2.4 2.6 2.0 0.7 1.7 2.2 2.8 3.2 6.6 5.5 4.5 8.0 7.2 4.7 4.4 3.6 3.5 4.3 4.6 4.1 3.9 3.5 2.2 1.5 1.5 1.7 2.1 1.2 1.6 1.3 1.7 1.6 1.3 1.2 0.7 1.0 1.4 0.8 0.9 0.9 1.4 1.6 1.9 1.8 1.5 1.9
8.1 3.0 3.1 3.4 2.5 2.7 2.0 1.7 1.7 1.3 1.3 1.7 3.3 1.6 2.0 5.9 6.3 7.3 9.0 10.8 7.1 5.9 6.1 6.0 5.6 3.8 3.5 3.6 4.8 3.7 2.4 1.1 0.7 1.4 0.9 0.3 0.5 2.0 2.2 2.5 3.1 2.9 2.0 1.4 1.5 1.7 2.3 1.9 2.3 2.9 3.1 2.2 2.4 1.9
6.1 4.9 2.5 1.9 3.6 4.5 6.0 5.4 4.8 4.7 4.9 5.6 3.9 4.1 6.1 9.4 8.8 11.1 9.6 7.8 7.1 7.1 6.4 4.8 3.6 4.8 4.4 3.1 3.1 2.5 0.9 0.9 1.7 2.0 1.0 1.3 1.3 1.1 2.1 3.0 3.2 2.7 1.2 1.8 2.6 2.8 3.2 3.9 3.7 3.4 3.4 3.6 2.4 2.0
4.2 2.5 3.7 3.2 4.0 5.6 6.3 5.0 6.1 8.1 7.3 5.3 4.4 5.8 6.4 7.5 10.3 10.0 8.0 7.9 7.3 5.5 6.5 6.7 5.1 3.7 5.4 6.1 4.8 4.1 4.0 3.1 3.5 3.2 3.4 4.8 3.0 1.9 1.7 2.3 1.7 1.8 0.8 1.5 2.8 3.6 4.9 4.6 4.9 4.0 4.0 4.5 4.0 3.6
3.1 1.3 1.9 2.1 1.4 5.0 5.4 5.2 6.5 5.7 3.8 4.7 7.2 7.7 6.0 5.1 9.3 8.8 8.3 6.4 5.5 4.7 6.5 7.0 8.8 6.2 5.2 8.1 9.0 8.5 8.2 8.7 7.5 6.6 5.0 5.0 4.7 3.7 2.0 1.7 3.3 3.1 2.2 2.5 3.4 3.8 4.4 4.8 4.8 4.9 4.6 5.8 4.6 4.5
0.9 0.4 1.0 0.3 0.6 4.3 6.8 4.0 4.7 4.3 2.8 4.1 3.9 3.3 3.8 8.4 11.9 6.7 4.9 3.6 4.1 5.2 6.2 6.2 6.4 6.2 7.3 7.5 10.1 10.0 9.8 11.7 12.1 9.9 7.5 5.5 4.4 2.7 2.4 2.3 2.2 2.6 1.6 2.7 2.9 4.4 4.8 6.3 7.2 7.7 7.2 7.5 8.0 8.0
1.3 1.7 1.5 0.8 1.8 3.8 2.8 1.4 2.4 3.4 4.7 6.5 5.3 2.6 4.1 7.2 7.4 5.1 4.3 4.7 3.3 2.4 2.4 3.6 4.2 4.6 6.3 7.5 8.6 8.5 10.1 12.3 14.1 13.2 12.2 9.8 7.1 5.5 4.0 3.4 3.0 2.9 4.2 4.3 3.9 3.5 4.8 5.6 5.8 6.2 6.2 6.1 5.8 5.1
2.3 3.0 2.6 2.1 3.5 2.9 1.6 2.1 4.0 5.5 6.9 7.6 9.0 7.7 7.5 4.8 3.7 4.4 4.4 3.3 3.1 2.4 2.5 3.2 4.9 6.2 6.6 8.4 9.0 9.4 9.5 10.6 11.5 12.1 14.2 12.2 9.8 7.8 5.9 4.7 4.3 4.2 5.7 5.1 4.6 4.8 4.9 4.8 5.3 5.7 5.6 5.5 5.5 6.4
2.7 1.4 1.7 1.8 2.0 1.6 1.6 2.1 4.3 4.8 5.4 6.0 7.7 6.9 5.7 3.4 4.9 6.4 4.0 3.1 5.4 4.9 4.1 4.0 4.4 5.9 6.5 5.8 5.6 5.9 6.0 6.9 7.6 7.9 9.7 10.1 9.9 9.2 8.0 6.4 5.2 4.8 4.8 5.3 4.8 4.5 4.9 4.5 5.0 4.9 5.0 4.8 4.6 4.8

GFSWCAN_prec_snow_246.txt.gz
Snowfall_Accumulation
0.0 0.0 0.0 0.0 0.0 0.0 0.0 0.0 0.0 0.0 0.0 0.0 0.0 0.0 0.0 0.0 0.0 0.0 0.0 0.0 0.0 35.9 4.7 0.0 0.0 0.2 2.7 2.1 10.0 4.5 14.6 10.4 16.3 19.2 18.8 15.3 16.5 10.6 8.1 3.0 2.9 5.2 18.3 19.0 17.8 23.9 10.3 0.0 1.0 4.8 3.0 5.5 7.3 8.5
0.0 0.0 0.0 0.0 0.0 0.0 0.0 0.0 0.0 0.0 0.0 0.0 0.0 0.0 0.0 0.0 0.0 0.0 0.7 0.0 0.0 8.7 9.4 0.0 0.0 0.0 0.0 0.0 1.8 3.8 6.4 8.7 11.8 16.1 13.8 10.5 10.4 7.2 9.0 11.3 1.7 6.8 6.2 12.8 12.9 10.0 2.4 0.8 1.3 1.8 1.3 4.4 6.7 6.8
0.0 0.0 0.0 0.0 0.0 0.0 0.0 0.0 0.0 0.0 0.0 0.0 0.0 0.0 0.0 0.0 0.0 0.0 2.1 0.0 0.0 26.2 8.6 0.8 0.2 0.0 0.0 0.0 0.0 9.5 1.8 0.7 3.6 1.2 13.4 12.5 12.1 2.0 8.7 6.2 6.3 5.8 2.5 6.0 5.9 5.6 1.8 1.1 1.1 2.1 3.1 5.3 5.0 4.7
0.0 0.0 0.0 0.0 0.0 0.0 0.0 0.0 0.0 0.0 0.0 0.0 0.0 0.0 0.0 0.0 0.0 0.0 0.0 0.0 0.0 4.7 29.4 12.1 0.0 0.0 0.0 0.0 0.0 0.0 0.0 0.0 0.3 1.6 20.2 16.8 14.7 3.0 9.9 7.2 6.9 10.0 5.2 4.9 10.3 13.9 2.1 3.5 5.6 4.5 4.7 4.5 3.9 4.1
0.0 0.0 0.0 0.0 0.0 0.0 0.0 0.0 0.0 0.0 0.0 0.0 0.0 0.0 0.0 0.0 0.0 0.0 0.0 0.0 0.0 0.4 18.5 13.5 0.0 0.0 0.0 0.0 0.0 0.0 0.0 1.8 9.4 16.7 19.3 12.4 3.8 11.1 11.6 7.2 5.0 6.4 8.2 10.3 11.3 8.2 9.3 7.0 5.9 4.8 3.5 3.2 2.5 1.5
0.0 0.0 0.0 0.0 0.0 0.0 0.0 0.0 0.0 0.0 0.0 0.0 0.0 0.0 0.0 0.0 0.0 0.0 50.3 6.3 0.0 0.0 21.0 21.3 4.2 1.5 0.0 0.0 0.0 0.0 0.0 0.7 8.2 15.8 11.3 3.1 0.0 7.3 22.4 9.7 5.3 7.3 9.9 8.5 8.1 8.0 6.4 5.1 3.9 2.8 2.2 2.2 1.5 0.9
0.0 0.0 0.0 0.0 0.0 0.0 0.0 0.0 0.0 0.0 0.0 0.0 0.0 0.0 0.0 0.0 0.0 14.8 13.5 0.4 0.0 0.0 20.3 18.6 10.8 6.8 1.5 0.0 0.0 3.2 2.5 12.8 18.4 20.9 14.0 5.0 1.8 10.5 20.8 10.6 7.1 7.6 8.0 6.4 4.6 3.5 3.1 3.1 2.5 1.4 0.8 0.7 0.5 0.1
0.0 0.0 0.0 0.0 0.0 0.0 0.0 0.0 0.0 0.0 0.0 0.0 0.0 0.0 0.0 0.0 0.0 5.0 0.0 0.0 0.0 2.3 7.0 20.1 15.3 19.6 0.0 9.0 13.6 3.7 9.9 11.8 14.2 13.2 11.1 6.1 7.4 12.6 19.6 5.8 4.1 3.6 3.9 2.8 1.9 0.9 0.5 0.2 0.0 0.0 0.0 0.0 0.0 0.0
0.0 0.0 0.0 0.0 0.0 0.0 0.0 0.0 0.0 0.0 0.0 0.0 0.0 0.0 0.0 6.8 15.1 0.0 0.0 0.0 0.0 1.4 14.7 6.8 8.7 23.0 6.6 7.9 7.6 7.7 6.5 20.4 5.7 12.3 7.8 7.4 11.5 14.4 9.6 3.5 2.3 1.2 1.8 1.3 0.0 0.0 0.0 0.0 0.0 0.0 0.2 0.2 0.3 0.9
0.0 0.0 0.0 0.0 0.0 0.0 0.0 0.0 0.0 0.0 0.0 0.0 2.7 27.9 68.1 6.5 0.0 0.0 0.5 26.4 20.0 8.1 9.8 9.1 2.3 10.6 4.8 9.9 12.5 13.0 8.0 10.4 12.1 6.1 2.3 11.7 6.9 3.2 2.5 1.4 0.8 0.4 1.1 0.5 0.2 0.1 0.1 0.1 0.3 0.3 0.6 0.9 2.4 2.2
0.0 0.0 0.0 0.0 0.0 0.0 0.0 0.0 0.0 0.0 0.0 0.1 24.8 33.0 0.0 0.0 0.3 14.8 33.3 23.4 11.3 9.4 3.1 5.3 3.7 10.1 2.1 13.7 11.7 8.6 17.5 7.5 11.9 6.6 5.4 8.7 6.1 6.9 1.3 0.6 0.5 0.6 0.0 0.2 0.4 0.5 0.3 0.9 0.9 1.3 2.9 2.9 3.8 4.0
0.0 0.0 0.0 0.0 0.0 0.0 0.0 0.0 0.0 0.0 0.0 0.0 0.0 0.0 0.0 18.3 18.2 20.4 16.6 11.1 5.8 4.8 2.4 3.1 2.9 2.8 2.2 2.1 7.9 8.6 8.5 14.0 19.9 7.7 12.6 9.1 12.1 4.2 0.2 1.2 1.4 0.7 0.9 1.5 1.7 3.9 2.0 2.0 1.7 2.4 2.8 2.6 3.9 3.3
0.0 0.0 0.0 0.0 0.0 0.0 0.0 0.0 0.0 0.0 0.0 0.0 2.2 9.5 10.5 13.8 15.3 10.4 9.7 7.5 6.5 3.1 2.4 1.0 4.8 2.7 4.7 2.7 13.4 7.8 14.9 15.2 9.3 15.8 8.8 9.0 6.7 3.5 1.8 1.7 2.2 2.5 3.2 4.3 4.2 3.3 3.9 2.8 2.9 1.8 3.6 6.0 7.7 9.6
0.0 0.0 0.0 0.0 0.0 0.0 0.0 0.0 0.0 0.0 0.7 9.2 9.5 9.9 7.4 6.2 7.8 8.0 8.3 8.1 5.4 3.0 3.0 2.9 4.4 8.4 8.9 10.1 14.3 16.6 16.6 11.1 12.9 10.6 8.7 8.3 6.1 6.8 5.4 4.5 2.9 3.1 3.5 2.5 3.4 3.9 6.8 7.0 8.6 9.9 10.2 12.8 13.1 12.7
0.0 0.0 0.0 0.0 0.0 0.0 0.0 0.0 0.0 0.0 7.4 11.6 5.9 4.0 7.6 7.9 6.3 6.7 5.9 4.9 3.9 4.5 4.4 5.6 6.6 7.3 9.8 13.1 11.0 9.0 9.4 8.1 6.5 14.4 13.1 10.7 7.5 7.1 6.4 6.3 6.1 6.3 6.5 6.7 7.9 8.5 10.9 11.8 10.1 11.6 11.6 11.4 12.1 11.6
0.0 0.0 0.0 0.0 0.0 0.0 0.0 0.0 0.0 2.3 7.7 6.4 6.8 8.2 6.9 7.5 9.2 7.6 5.5 5.9 4.6 5.8 7.7 8.4 12.4 12.9 12.9 9.9 6.7 5.3 4.2 7.4 14.7 11.0 9.4 8.6 8.3 8.9 9.2 8.5 8.6 8.1 7.8 8.0 8.4 8.0 8.1 8.8 9.6 11.2 9.4 8.8 11.4 12.7
0.0 1.8 0.0 0.0 0.0 0.0 0.0 8.0 9.7 12.5 8.0 6.3 12.0 12.2 10.2 8.5 13.4 11.7 9.3 8.1 5.2 4.9 11.0 10.1 9.2 7.7 6.2 6.7 6.6 5.6 9.1 10.9 9.2 9.1 8.9 8.5 8.5 9.6 10.2 10.0 9.7 7.2 6.5 6.7 6.7 6.6 6.7 7.2 6.4 5.4 6.0 8.7 8.4 9.1
0.9 0.0 0.0 0.0 0.0 0.0 12.4 8.2 8.3 6.9 6.9 8.6 11.8 12.8 7.9 8.9 9.4 8.6 8.3 4.8 2.5 3.4 4.9 8.9 4.5 6.1 8.4 7.9 9.6 11.4 11.6 11.0 10.4 9.6 9.4 8.9 8.5 8.5 7.9 7.6 7.7 6.7 6.2 5.6 4.6 4.3 4.0 3.5 2.7 3.4 3.4 4.2 4.2 5.6
0.4 0.0 0.0 0.0 0.0 7.1 10.0 6.7 2.6 5.3 10.1 8.2 8.3 5.8 4.5 6.7 5.5 4.9 4.4 2.3 1.3 0.9 1.3 8.1 7.2 6.7 9.4 10.1 9.9 9.4 9.2 8.2 9.0 8.5 7.6 7.2 6.6 6.8 6.2 5.7 6.5 6.8 5.8 4.7 3.0 2.4 2.1 1.6 1.6 1.6 1.6 1.3 2.1 2.5
0.1 0.1 0.0 0.1 0.6 5.7 3.3 3.5 0.4 3.4 5.7 5.5 2.3 2.2 1.6 3.8 2.8 1.9 1.7 2.8 1.2 2.0 6.5 6.3 11.7 11.8 10.3 8.5 6.6 6.7 6.8 6.1 4.9 3.7 5.1 5.7 5.9 4.4 5.1 4.3 4.2 4.1 4.3 3.1 2.3 1.6 1.4 1.3 1.5 1.4 1.3 1.3 1.5 1.5
1.4 0.2 0.7 1.1 4.8 6.3 4.0 1.6 1.4 0.9 3.6 1.9 1.2 0.9 1.5 1.6 2.4 2.1 1.7 1.8 7.7 7.2 7.8 8.5 9.5 9.5 6.6 5.7 4.2 3.6 4.4 3.8 3.9 2.8 3.2 4.7 4.8 3.0 3.1 3.3 2.8 2.6 2.4 3.0 2.6 2.6 1.9 2.0 1.7 1.3 1.0 1.1 1.3 1.2
10.5 1.4 8.3 4.5 6.2 4.7 2.7 0.3 0.6 0.9 1.0 2.3 1.6 2.1 3.4 3.0 2.2 2.1 2.3 2.5 7.3 8.3 8.1 6.0 5.0 3.6 2.9 2.6 2.6 1.7 2.6 2.0 2.7 3.6 4.3 3.4 4.0 3.7 4.0 4.1 3.7 3.2 3.0 3.1 2.6 2.5 2.1 1.6 0.8 0.6 0.6 1.1 0.9 0.8
2.6 3.3 7.5 5.0 6.9 4.7 2.1 1.1 1.4 0.4 1.6 1.5 1.7 2.2 2.2 1.8 2.6 2.0 4.7 4.6 8.9 8.8 6.0 3.4 2.7 1.8 1.9 2.3 1.3 1.2 1.2 0.8 1.4 1.8 2.4 2.8 2.8 2.9 2.7 2.8 2.9 2.5 2.4 2.2 1.3 0.9 0.7 0.4 0.3 0.3 0.6 0.8 1.1 1.7
5.1 8.1 6.5 3.1 2.6 4.2 2.6 2.4 1.7 1.5 1.1 1.6 2.5 2.8 2.2 2.7 4.8 7.5 7.4 5.9 8.6 4.5 3.1 4.0 3.5 2.5 2.0 2.1 2.1 2.3 2.6 1.9 2.0 2.2 2.6 2.4 2.6 2.9 1.7 1.4 1.1 0.8 0.7 0.2 0.2 0.3 0.4 0.9 0.8 1.1 0.9 1.2 1.2 1.2
9.5 9.9 8.1 4.6 2.0 2.2 1.2 1.6 2.4 2.6 2.0 0.7 1.7 2.2 2.8 3.2 6.6 5.5 4.5 8.0 7.2 4.7 4.4 3.6 3.5 4.3 4.6 4.1 3.9 3.5 2.2 1.5 1.5 1.7 2.1 1.2 1.6 1.3 1.7 1.6 1.3 1.2 0.7 1.0 1.4 0.8 0.9 0.9 1.4 1.6 1.9 1.8 1.5 2.0
8.1 3.0 3.1 3.4 2.5 2.7 2.0 1.7 1.7 1.3 1.3 1.7 3.3 1.6 2.0 5.9 6.3 7.3 9.0 10.8 7.1 5.9 6.1 6.0 5.6 3.8 3.5 3.6 4.8 3.7 2.4 1.1 0.7 1.4 0.9 0.3 0.5 2.0 2.2 2.5 3.1 2.9 2.0 1.4 1.5 1.7 2.3 1.9 2.3 2.9 3.1 2.2 2.4 1.9
6.1 4.9 2.5 1.9 3.6 4.5 6.0 5.4 4.8 4.7 4.9 5.6 3.9 4.1 6.1 9.4 8.8 11.2 9.7 7.9 7.2 7.1 6.4 4.8 3.6 4.8 4.4 3.1 3.1 2.5 0.9 0.9 1.7 2.0 1.0 1.3 1.3 1.1 2.1 3.0 3.2 2.7 1.2 1.8 2.6 2.8 3.2 3.9 3.8 3.4 3.4 3.6 2.4 2.0
4.2 2.5 3.7 3.2 4.0 5.6 6.3 5.0 6.1 8.1 7.3 5.3 4.4 5.8 6.4 7.5 10.3 10.0 8.0 7.9 7.3 5.5 6.5 6.7 5.1 3.7 5.4 6.1 4.8 4.1 4.0 3.1 3.5 3.2 3.4 4.8 3.0 1.9 1.7 2.3 1.7 1.8 0.8 1.5 2.8 3.6 4.9 4.6 5.0 4.0 4.0 4.5 4.0 3.6
3.1 1.3 1.9 2.1 1.4 5.0 5.4 5.2 6.5 5.7 3.8 4.7 7.2 7.7 6.0 5.1 9.3 8.8 8.3 6.4 5.5 4.7 6.5 7.0 8.8 6.2 5.2 8.1 9.0 8.5 8.2 8.7 7.5 6.6 5.0 5.0 4.7 3.7 2.0 1.7 3.3 3.1 2.2 2.5 3.4 3.8 4.4 4.9 4.9 4.9 4.6 5.8 4.6 5.1
0.9 0.4 1.0 0.3 0.6 4.3 6.8 4.0 4.7 4.3 2.8 4.1 3.9 3.3 3.8 8.4 11.9 6.7 4.9 3.6 4.1 5.2 6.2 6.2 6.4 6.2 7.3 7.5 10.1 10.0 9.8 11.7 12.1 9.9 7.5 5.5 4.4 2.7 2.4 2.3 2.2 2.6 1.6 2.7 3.0 4.4 4.8 6.3 7.2 7.7 7.4 7.7 8.6 8.7
1.3 1.7 1.5 0.8 1.8 3.8 2.8 1.4 2.4 3.4 4.7 6.5 5.3 2.6 4.1 7.2 7.4 5.1 4.3 4.7 3.3 2.4 2.4 3.6 4.2 4.6 6.3 7.5 8.6 8.5 10.1 12.3 14.1 13.2 12.2 9.8 7.1 5.5 4.0 3.4 3.0 3.0 4.4 4.5 4.0 3.6 4.8 5.7 5.9 6.3 6.3 6.1 6.2 5.4
2.3 3.0 2.6 2.1 3.5 2.9 1.6 2.1 4.0 5.5 6.9 7.6 9.0 7.7 7.5 4.8 3.7 4.5 4.4 3.3 3.1 2.4 2.5 3.2 4.9 6.2 6.6 8.4 9.0 9.4 9.5 10.6 11.5 12.1 14.2 12.2 9.8 7.8 5.9 4.8 4.5 4.6 6.1 5.4 4.7 4.9 4.9 4.9 5.3 5.7 6.0 5.9 5.8 6.6
2.7 1.4 1.7 1.8 2.0 1.6 1.6 2.1 4.3 4.8 5.4 6.0 7.7 6.9 5.7 3.4 4.9 6.4 4.0 3.1 5.4 4.9 4.1 4.0 4.4 5.9 6.5 5.8 5.6 5.9 6.0 6.9 7.6 7.9 9.7 10.1 9.9 9.2 8.2 6.8 5.9 5.6 5.5 5.6 4.9 4.5 5.0 4.7 5.0 4.9 5.7 5.2 4.8 4.9

GFSWCAN_prec_snow_249.txt.gz
Snowfall_Accumulation
0.0 0.0 0.0 0.0 0.0 0.0 0.0 0.0 0.0 0.0 0.0 0.0 0.0 0.0 0.0 0.0 0.0 0.0 0.0 0.0 0.0 35.9 4.7 0.0 0.0 0.2 2.7 2.1 10.0 4.5 14.6 10.4 16.3 19.2 18.8 15.3 16.5 10.6 8.1 3.0 2.9 5.2 18.3 19.0 17.8 23.9 10.3 0.0 1.0 4.8 3.0 5.5 7.3 8.5
0.0 0.0 0.0 0.0 0.0 0.0 0.0 0.0 0.0 0.0 0.0 0.0 0.0 0.0 0.0 0.0 0.0 0.0 0.7 0.0 0.0 8.7 9.4 0.0 0.0 0.0 0.0 0.0 1.8 3.8 6.4 8.7 11.8 16.1 13.8 10.5 10.4 7.2 9.0 11.3 1.7 6.8 6.2 12.8 12.9 10.0 2.4 0.8 1.3 1.8 1.3 4.4 6.7 6.8
0.0 0.0 0.0 0.0 0.0 0.0 0.0 0.0 0.0 0.0 0.0 0.0 0.0 0.0 0.0 0.0 0.0 0.0 2.1 0.0 0.0 26.2 8.6 0.8 0.2 0.0 0.0 0.0 0.0 9.5 1.8 0.7 3.6 1.2 13.4 12.5 12.1 2.0 8.7 6.2 6.3 5.8 2.5 6.0 5.9 5.6 1.8 1.1 1.1 2.1 3.1 5.3 5.0 4.7
0.0 0.0 0.0 0.0 0.0 0.0 0.0 0.0 0.0 0.0 0.0 0.0 0.0 0.0 0.0 0.0 0.0 0.0 0.0 0.0 0.0 4.7 29.4 12.1 0.0 0.0 0.0 0.0 0.0 0.0 0.0 0.0 0.3 1.6 20.2 16.8 14.7 3.0 9.9 7.2 6.9 10.0 5.2 4.9 10.3 13.9 2.1 3.5 5.6 4.5 4.7 4.5 3.9 4.1
0.0 0.0 0.0 0.0 0.0 0.0 0.0 0.0 0.0 0.0 0.0 0.0 0.0 0.0 0.0 0.0 0.0 0.0 0.0 0.0 0.0 0.4 18.5 13.5 0.0 0.0 0.0 0.0 0.0 0.0 0.0 1.8 9.4 16.7 19.3 12.4 3.8 11.1 11.6 7.2 5.0 6.4 8.2 10.3 11.3 8.2 9.3 7.0 5.9 4.8 3.5 3.2 2.5 1.5
0.0 0.0 0.0 0.0 0.0 0.0 0.0 0.0 0.0 0.0 0.0 0.0 0.0 0.0 0.0 0.0 0.0 0.0 50.4 6.3 0.0 0.0 21.0 21.3 4.2 1.5 0.0 0.0 0.0 0.0 0.0 0.7 8.2 15.8 11.3 3.1 0.0 7.3 22.4 9.7 5.3 7.3 9.9 8.5 8.1 8.0 6.4 5.1 3.9 2.8 2.2 2.2 1.5 0.9
0.0 0.0 0.0 0.0 0.0 0.0 0.0 0.0 0.0 0.0 0.0 0.0 0.0 0.0 0.0 0.0 0.0 14.8 13.5 0.4 0.0 0.0 20.3 18.6 10.8 6.8 1.5 0.0 0.0 3.2 2.5 12.8 18.4 20.9 14.0 5.0 1.8 10.5 20.8 10.6 7.1 7.6 8.0 6.4 4.6 3.5 3.1 3.1 2.5 1.4 0.8 0.7 0.5 0.1
0.0 0.0 0.0 0.0 0.0 0.0 0.0 0.0 0.0 0.0 0.0 0.0 0.0 0.0 0.0 0.0 0.0 5.0 0.0 0.0 0.0 2.3 7.0 20.1 15.3 19.6 0.0 9.0 13.6 3.7 9.9 11.8 14.2 13.2 11.1 6.1 7.4 12.6 19.6 5.8 4.1 3.6 3.9 2.8 1.9 0.9 0.5 0.2 0.0 0.0 0.0 0.0 0.0 0.0
0.0 0.0 0.0 0.0 0.0 0.0 0.0 0.0 0.0 0.0 0.0 0.0 0.0 0.0 0.0 6.8 15.3 0.0 0.0 0.0 0.0 1.4 14.7 6.8 8.7 23.0 6.6 7.9 7.6 7.7 6.5 20.4 5.7 12.4 7.8 7.4 11.5 14.4 9.6 3.5 2.3 1.2 1.8 1.3 0.0 0.0 0.0 0.0 0.0 0.0 0.2 0.2 0.3 0.9
0.0 0.0 0.0 0.0 0.0 0.0 0.0 0.0 0.0 0.0 0.0 0.0 2.7 29.1 69.1 6.9 0.0 0.0 0.5 26.7 20.3 8.1 9.8 9.1 2.3 10.6 4.8 9.9 12.5 13.0 8.0 10.4 12.1 6.1 2.3 11.7 6.9 3.2 2.5 1.4 0.8 0.4 1.1 0.5 0.2 0.1 0.1 0.1 0.3 0.3 0.6 0.9 2.4 2.2
0.0 0.0 0.0 0.0 0.0 0.0 0.0 0.0 0.0 0.0 0.0 0.1 25.6 33.2 0.0 0.0 0.3 14.8 33.5 23.5 11.4 9.4 3.1 5.3 3.7 10.1 2.1 13.7 11.7 8.6 17.5 7.5 11.9 6.6 5.4 8.7 6.1 6.9 1.3 0.6 0.5 0.6 0.0 0.2 0.4 0.5 0.3 0.9 0.9 1.3 2.9 2.9 3.8 4.0
0.0 0.0 0.0 0.0 0.0 0.0 0.0 0.0 0.0 0.0 0.0 0.0 0.0 0.0 0.0 18.3 18.2 20.4 16.6 11.2 5.8 4.8 2.4 3.1 2.9 2.8 2.2 2.1 7.9 8.6 8.5 14.1 19.9 7.7 12.7 9.1 12.1 4.2 0.2 1.2 1.4 0.7 0.9 1.5 1.7 3.9 2.0 2.0 1.7 2.4 2.8 2.6 3.9 3.3
0.0 0.0 0.0 0.0 0.0 0.0 0.0 0.0 0.0 0.0 0.0 0.0 2.2 9.5 10.5 13.8 15.4 10.4 9.7 7.5 6.5 3.1 2.4 1.0 4.8 2.7 4.7 2.7 13.4 7.8 14.9 15.2 9.3 15.8 8.8 9.0 6.7 3.5 1.8 1.7 2.2 2.5 3.2 4.3 4.2 3.3 3.9 2.8 2.9 1.8 3.6 6.0 7.7 9.6
0.0 0.0 0.0 0.0 0.0 0.0 0.0 0.0 0.0 0.0 0.7 9.2 9.5 10.0 7.4 6.2 7.8 8.0 8.3 8.1 5.4 3.0 3.0 2.9 4.4 8.4 8.9 10.1 14.3 16.6 16.6 11.1 13.0 10.7 8.7 8.3 6.1 6.8 5.4 4.5 2.9 3.1 3.5 2.5 3.4 3.9 6.8 7.0 8.6 9.9 10.2 12.8 13.1 12.7
0.0 0.0 0.0 0.0 0.0 0.0 0.0 0.0 0.0 0.0 7.4 11.6 5.9 4.0 7.6 7.9 6.3 6.7 5.9 4.9 3.9 4.5 4.4 5.6 6.6 7.3 9.8 13.1 11.0 9.0 9.4 8.1 6.5 14.4 13.1 10.7 7.8 7.1 6.4 6.3 6.1 6.3 6.5 6.7 7.9 8.5 10.9 11.8 10.1 11.6 11.6 11.4 12.1 11.6
0.0 0.0 0.0 0.0 0.0 0.0 0.0 0.0 0.0 2.3 7.7 6.4 6.8 8.2 6.9 7.5 9.2 7.6 5.5 5.9 4.6 5.8 7.7 8.4 12.4 12.9 12.9 9.9 6.7 5.3 4.3 7.4 14.7 11.0 9.4 8.7 8.4 9.2 9.5 8.5 8.6 8.3 7.8 8.0 8.4 8.0 8.1 8.8 9.6 11.2 9.4 8.8 11.4 12.7
0.0 1.8 0.0 0.0 0.0 0.0 0.0 8.0 10.0 12.6 8.0 6.3 12.0 12.2 10.2 8.5 13.4 11.7 9.3 8.1 5.2 4.9 11.0 10.1 9.2 7.7 6.2 6.7 6.6 5.6 9.1 10.9 9.2 9.1 8.9 8.5 8.5 9.7 10.2 10.0 9.7 7.2 6.5 6.7 6.7 6.6 6.7 7.2 6.4 5.4 6.0 8.7 8.4 9.1
0.9 0.0 0.0 0.0 0.0 0.0 12.4 8.2 8.6 7.2 6.9 8.6 11.8 12.8 7.9 8.9 9.4 8.6 8.3 4.8 2.5 3.4 4.9 9.6 5.0 6.3 8.4 7.9 9.6 11.4 11.6 11.0 10.4 9.6 9.4 8.9 8.5 8.5 7.9 7.6 7.7 6.7 6.2 5.6 4.6 4.3 4.0 3.5 2.7 3.4 3.4 4.2 4.2 5.6
0.4 0.0 0.0 0.0 0.0 7.5 11.1 7.7 2.7 5.3 10.1 8.2 8.3 5.8 4.5 6.7 5.5 4.9 4.4 2.3 1.3 0.9 1.3 8.4 7.7 7.0 9.4 10.1 9.9 9.4 9.2 8.2 9.0 8.5 7.6 7.2 6.6 6.8 6.2 5.7 6.5 6.8 5.8 4.7 3.0 2.4 2.1 1.6 1.6 1.6 1.6 1.3 2.1 2.5
0.1 0.1 0.0 0.1 0.6 5.7 3.5 3.8 0.4 3.4 5.7 5.5 2.3 2.2 1.6 3.8 2.8 1.9 1.7 2.8 1.2 2.0 6.5 6.3 11.7 11.8 10.3 8.5 6.6 6.7 6.8 6.1 4.9 3.7 5.1 5.7 5.9 4.4 5.1 4.3 4.2 4.1 4.3 3.1 2.3 1.6 1.4 1.3 1.5 1.4 1.3 1.3 1.5 1.5
1.4 0.2 0.7 1.1 4.8 6.3 4.0 1.7 1.4 0.9 3.6 1.9 1.2 0.9 1.6 1.7 2.5 2.2 1.7 1.8 7.7 7.2 7.8 8.5 9.5 9.5 6.6 5.7 4.2 3.6 4.4 3.8 3.9 2.8 3.2 4.7 4.8 3.0 3.1 3.3 2.8 2.6 2.4 3.0 2.6 2.6 1.9 2.0 1.7 1.3 1.0 1.1 1.3 1.2
11.9 1.4 8.3 4.5 6.2 4.7 2.7 0.3 0.6 0.9 1.0 2.3 1.6 2.1 3.4 3.0 2.2 2.1 2.3 2.5 7.3 8.3 8.1 6.0 5.0 3.6 2.9 2.6 2.6 1.7 2.6 2.0 2.7 3.6 4.3 3.4 4.0 3.7 4.0 4.1 3.7 3.2 3.0 3.1 2.6 2.5 2.1 1.6 0.8 0.6 0.6 1.1 0.9 0.8
2.6 3.4 7.6 5.0 6.9 4.7 2.1 1.1 1.4 0.4 1.8 1.7 1.7 2.2 2.2 1.8 2.6 2.0 4.7 4.6 8.9 8.8 6.0 3.4 2.7 1.8 1.9 2.3 1.3 1.2 1.2 0.8 1.4 1.8 2.4 2.8 2.8 2.9 2.7 2.8 2.9 2.5 2.4 2.2 1.3 0.9 0.7 0.4 0.3 0.3 0.6 0.8 1.1 1.7
5.1 8.1 6.6 3.1 2.6 4.4 2.6 2.4 1.7 1.5 1.1 1.6 2.5 2.8 2.2 2.7 4.8 7.5 7.4 5.9 8.6 4.5 3.1 4.0 3.5 2.5 2.0 2.1 2.1 2.3 2.6 1.9 2.0 2.2 2.6 2.4 2.6 2.9 1.7 1.4 1.1 0.8 0.7 0.2 0.2 0.3 0.4 0.9 0.8 1.1 0.9 1.2 1.2 1.2
9.5 10.2 8.1 4.6 2.0 2.2 1.2 1.6 2.4 2.6 2.0 0.7 1.7 2.2 2.8 3.2 6.6 5.5 4.5 8.0 7.2 4.7 4.4 3.6 3.5 4.3 4.6 4.1 3.9 3.5 2.2 1.5 1.5 1.7 2.1 1.2 1.6 1.3 1.7 1.6 1.3 1.2 0.7 1.0 1.4 0.8 0.9 0.9 1.4 1.6 1.9 1.8 1.5 2.0
8.1 3.0 3.1 3.4 2.5 2.7 2.0 1.7 1.7 1.3 1.3 1.7 3.3 1.6 2.0 5.9 6.3 7.3 9.0 10.8 7.1 5.9 6.1 6.0 5.6 3.8 3.5 3.6 4.8 3.7 2.4 1.1 0.7 1.4 0.9 0.3 0.5 2.0 2.2 2.5 3.1 2.9 2.0 1.4 1.5 1.7 2.3 1.9 2.3 2.9 3.1 2.2 2.4 1.9
6.1 4.9 2.5 1.9 3.6 4.5 6.0 5.4 4.8 4.7 4.9 5.6 3.9 4.1 6.1 9.4 8.8 11.2 9.8 8.0 7.2 7.1 6.4 4.8 3.6 4.8 4.4 3.1 3.1 2.5 0.9 0.9 1.7 2.0 1.0 1.3 1.3 1.1 2.1 3.0 3.2 2.7 1.2 1.8 2.6 2.8 3.2 3.9 3.8 3.4 3.4 3.6 2.4 2.0
4.2 2.5 3.7 3.2 4.0 5.6 6.3 5.0 6.1 8.1 7.3 5.3 4.4 5.8 6.4 7.5 10.3 10.0 8.0 8.0 7.4 5.5 6.5 6.7 5.1 3.7 5.4 6.1 4.8 4.1 4.0 3.1 3.5 3.2 3.4 4.8 3.0 1.9 1.7 2.3 1.7 1.8 0.8 1.5 2.8 3.6 4.9 4.6 5.0 4.1 4.1 4.5 4.0 3.6
3.1 1.3 1.9 2.1 1.4 5.0 5.4 5.2 6.5 5.7 3.8 4.7 7.2 7.7 6.1 5.1 9.3 8.8 8.3 6.4 5.5 4.7 6.5 7.0 8.8 6.2 5.2 8.1 9.0 8.5 8.2 8.7 7.5 6.6 5.0 5.0 4.7 3.7 2.0 1.7 3.3 3.1 2.2 2.5 3.4 3.8 4.4 4.9 5.0 5.0 4.7 5.9 4.6 5.1
0.9 0.4 1.0 0.3 0.6 4.3 6.8 4.0 4.7 4.3 2.8 4.1 3.9 3.3 3.8 8.4 11.9 6.7 4.9 3.6 4.1 5.2 6.2 6.2 6.4 6.2 7.3 7.5 10.1 10.0 9.8 11.7 12.1 9.9 7.5 5.5 4.4 2.7 2.4 2.3 2.2 2.6 1.6 2.7 3.0 4.4 4.8 6.3 7.2 7.7 7.4 7.8 8.6 8.7
1.3 1.7 1.5 0.8 1.8 3.8 2.8 1.4 2.4 3.4 4.7 6.5 5.3 2.6 4.1 7.3 7.4 5.2 4.3 4.7 3.3 2.4 2.4 3.6 4.2 4.6 6.3 7.5 8.6 8.5 10.1 12.3 14.1 13.2 12.2 9.8 7.1 5.5 4.0 3.4 3.0 3.0 4.4 4.6 4.2 3.7 4.9 5.7 6.0 6.4 6.4 6.1 6.2 5.4
2.3 3.0 2.6 2.1 3.5 2.9 1.6 2.1 4.0 5.5 6.9 7.6 9.0 7.7 7.5 4.8 3.7 4.6 4.5 3.3 3.1 2.4 2.5 3.2 4.9 6.2 6.6 8.4 9.0 9.4 9.5 10.6 11.5 12.1 14.2 12.2 9.8 7.8 5.9 4.9 4.5 4.7 6.4 5.7 4.9 5.1 5.1 5.0 5.4 5.7 6.0 5.9 5.8 6.6
2.7 1.4 1.7 1.8 2.0 1.6 1.6 2.1 4.3 4.8 5.4 6.0 7.7 6.9 5.7 3.4 4.9 6.4 4.1 3.1 5.4 4.9 4.1 4.0 4.4 5.9 6.5 5.8 5.6 5.9 6.0 6.9 7.6 7.9 9.7 10.1 9.9 9.2 8.2 6.9 5.9 5.8 5.8 6.0 5.2 4.8 5.1 4.8 5.0 4.9 5.7 5.2 4.8 5.4

GFSWCAN_prec_snow_255.txt.gz
Snowfall_Accumulation
0.0 0.0 0.0 0.0 0.0 0.0 0.0 0.0 0.0 0.0 0.0 0.0 0.0 0.0 0.0 0.0 0.0 0.0 0.0 0.0 0.0 35.9 4.7 0.0 0.0 0.2 2.7 2.1 10.0 4.5 14.6 10.4 16.3 19.2 18.8 15.3 16.5 10.6 8.1 3.0 2.9 5.2 18.3 19.0 17.8 23.9 10.3 0.0 1.0 4.8 3.0 5.5 7.3 8.5
0.0 0.0 0.0 0.0 0.0 0.0 0.0 0.0 0.0 0.0 0.0 0.0 0.0 0.0 0.0 0.0 0.0 0.0 0.7 0.0 0.0 8.7 9.4 0.0 0.0 0.0 0.0 0.0 1.8 3.8 6.4 8.7 11.8 16.1 13.8 10.5 10.4 7.2 9.0 11.3 1.7 6.8 6.2 12.8 12.9 10.0 2.4 0.8 1.3 1.8 1.3 4.4 6.7 6.8
0.0 0.0 0.0 0.0 0.0 0.0 0.0 0.0 0.0 0.0 0.0 0.0 0.0 0.0 0.0 0.0 0.0 0.0 2.1 0.0 0.0 26.2 8.6 0.8 0.2 0.0 0.0 0.0 0.0 9.5 1.8 0.7 3.6 1.2 13.4 12.5 12.1 2.0 8.7 6.2 6.3 5.8 2.5 6.0 5.9 5.6 1.8 1.1 1.1 2.1 3.1 5.3 5.0 4.7
0.0 0.0 0.0 0.0 0.0 0.0 0.0 0.0 0.0 0.0 0.0 0.0 0.0 0.0 0.0 0.0 0.0 0.0 0.0 0.0 0.0 4.7 29.4 12.1 0.0 0.0 0.0 0.0 0.0 0.0 0.0 0.0 0.3 1.6 20.2 16.8 14.7 3.0 9.9 7.2 6.9 10.0 5.2 4.9 10.3 13.9 2.1 3.5 5.6 4.5 4.7 4.5 3.9 4.1
0.0 0.0 0.0 0.0 0.0 0.0 0.0 0.0 0.0 0.0 0.0 0.0 0.0 0.0 0.0 0.0 0.0 0.0 0.0 0.0 0.0 0.4 18.5 13.5 0.0 0.0 0.0 0.0 0.0 0.0 0.0 1.8 9.4 16.7 19.3 12.4 3.8 11.1 11.6 7.2 5.0 6.4 8.2 10.3 11.3 8.2 9.3 7.0 5.9 4.8 3.5 3.2 2.5 1.5
0.0 0.0 0.0 0.0 0.0 0.0 0.0 0.0 0.0 0.0 0.0 0.0 0.0 0.0 0.0 0.0 0.0 0.0 51.9 6.3 0.0 0.0 21.0 21.3 4.2 1.5 0.0 0.0 0.0 0.0 0.0 0.7 8.2 15.8 11.3 3.1 0.0 7.3 22.4 9.7 5.3 7.3 9.9 8.5 8.1 8.0 6.4 5.1 3.9 2.8 2.2 2.2 1.5 0.9
0.0 0.0 0.0 0.0 0.0 0.0 0.0 0.0 0.0 0.0 0.0 0.0 0.0 0.0 0.0 0.0 0.0 14.8 14.1 0.4 0.0 0.0 20.3 18.6 10.8 6.8 1.5 0.0 0.0 3.2 2.5 12.8 18.4 20.9 14.0 5.0 1.8 10.5 20.8 10.6 7.1 7.6 8.0 6.4 4.6 3.5 3.1 3.1 2.5 1.4 0.8 0.7 0.5 0.1
0.0 0.0 0.0 0.0 0.0 0.0 0.0 0.0 0.0 0.0 0.0 0.0 0.0 0.0 0.0 0.0 0.0 6.0 0.0 0.0 0.0 2.3 7.0 20.1 15.3 19.6 0.0 9.0 13.6 3.7 9.9 11.8 14.2 13.2 11.2 6.1 7.4 12.6 19.6 5.8 4.1 3.6 3.9 2.8 1.9 0.9 0.5 0.2 0.0 0.0 0.0 0.0 0.0 0.0
0.0 0.0 0.0 0.0 0.0 0.0 0.0 0.0 0.0 0.0 0.0 0.0 0.0 0.0 0.0 6.8 18.8 0.0 0.0 0.0 0.0 1.4 14.7 6.8 8.7 23.1 6.6 7.9 7.6 7.7 6.5 20.5 5.8 12.5 7.8 7.4 11.5 14.4 9.6 3.5 2.3 1.2 1.8 1.3 0.0 0.0 0.0 0.0 0.0 0.0 0.2 0.2 0.3 0.9
0.0 0.0 0.0 0.0 0.0 0.0 0.0 0.0 0.0 0.0 0.0 0.0 2.7 34.1 74.8 11.3 0.0 0.0 0.5 27.1 20.5 8.1 9.8 9.1 2.3 10.7 4.8 9.9 12.5 13.0 8.0 10.4 12.1 6.1 2.3 11.9 6.9 3.2 2.5 1.4 0.8 0.4 1.1 0.5 0.2 0.1 0.1 0.1 0.3 0.3 0.6 0.9 2.4 2.2
0.0 0.0 0.0 0.0 0.0 0.0 0.0 0.0 0.0 0.0 0.0 0.1 31.3 36.7 0.0 0.0 1.1 15.7 35.1 24.3 12.1 9.5 3.1 5.3 3.7 10.2 2.1 13.7 11.7 8.6 17.5 7.5 11.9 6.6 5.4 8.7 6.1 6.9 1.3 0.6 0.5 0.6 0.0 0.2 0.4 0.5 0.3 0.9 0.9 1.3 2.9 2.9 3.8 4.0
0.0 0.0 0.0 0.0 0.0 0.0 0.0 0.0 0.0 7.3 4.7 0.0 0.0 0.0 2.9 20.2 19.6 21.6 17.2 11.3 5.8 4.8 2.4 3.1 2.9 2.8 2.2 2.1 7.9 8.6 8.5 14.1 19.9 7.7 12.7 9.1 12.1 4.2 0.2 1.2 1.4 0.7 0.9 1.5 1.7 3.9 2.0 2.0 1.7 2.4 2.8 2.6 3.9 3.3
0.0 0.0 0.0 0.0 0.0 0.0 0.0 0.0 0.0 0.0 0.0 0.0 2.5 10.7 11.5 15.3 16.0 10.7 10.0 7.5 6.5 3.1 2.4 1.0 4.9 2.7 4.7 2.7 13.4 7.8 14.9 15.2 9.3 16.1 8.8 9.0 6.7 3.5 1.8 1.7 2.2 2.5 3.2 4.3 4.2 3.3 3.9 2.8 2.9 1.8 3.6 6.0 7.7 9.6
0.0 0.0 0.0 0.0 0.0 0.0 0.0 0.0 0.0 0.0 0.7 9.5 9.8 10.4 7.6 6.2 7.8 8.0 8.3 8.1 5.4 3.0 3.0 2.9 4.4 8.4 8.9 10.1 14.3 16.6 16.6 11.1 13.1 10.8 8.7 8.3 6.1 6.8 5.4 4.5 2.9 3.1 3.5 2.5 3.4 3.9 6.8 7.0 8.6 9.9 10.2 12.8 13.1 12.7
0.0 0.0 0.0 0.0 0.0 0.0 0.0 0.0 0.0 0.0 7.4 11.6 5.9 4.0 7.6 7.9 6.3 6.7 5.9 4.9 3.9 4.5 4.4 5.6 6.6 7.3 9.8 13.1 11.0 9.0 9.5 8.1 6.5 14.4 13.1 10.7 7.8 7.1 6.4 6.3 6.1 6.3 6.5 6.7 7.9 8.5 10.9 11.8 10.1 11.6 11.6 11.4 12.1 11.6
0.0 0.0 0.0 0.0 0.0 0.0 0.0 0.0 0.0 2.3 7.7 6.4 6.8 8.2 6.9 7.5 9.2 7.6 5.5 5.9 4.6 5.8 7.7 8.4 12.4 12.9 12.9 9.9 6.7 5.3 4.3 7.4 14.7 11.0 9.4 8.8 8.5 9.2 9.5 8.5 8.7 8.3 7.9 8.0 8.4 8.0 8.1 8.8 9.6 11.2 9.4 8.8 11.4 12.7
0.0 1.8 0.0 0.0 0.0 0.0 0.0 8.0 10.1 12.6 8.0 6.3 12.0 12.2 10.2 8.5 13.4 11.7 9.3 8.1 5.2 4.9 11.0 10.1 9.2 7.7 6.2 6.7 6.6 5.6 9.1 10.9 9.2 9.1 8.9 8.6 8.6 9.8 10.2 10.0 9.7 7.2 6.5 6.7 6.7 6.6 6.7 7.2 6.4 5.4 6.0 8.7 8.4 9.1
0.9 0.0 0.0 0.0 0.0 0.0 12.4 8.2 8.6 7.5 6.9 8.6 11.8 12.8 7.9 8.9 9.4 8.6 8.3 4.8 2.5 3.4 4.9 9.6 5.0 6.3 8.4 7.9 9.6 11.4 11.6 11.0 10.4 9.6 9.4 8.9 8.6 8.5 7.9 7.6 7.7 6.7 6.2 5.6 4.6 4.3 4.0 3.5 2.7 3.4 3.4 4.2 4.2 5.6
0.4 0.0 0.0 0.0 0.0 7.9 13.4 10.1 2.9 5.4 10.2 8.2 8.3 5.8 4.5 6.7 5.5 4.9 4.4 2.3 1.3 0.9 1.3 8.4 7.7 7.0 9.4 10.1 9.9 9.4 9.2 8.2 9.1 8.5 7.6 7.4 6.7 6.8 6.2 5.7 6.5 6.8 5.8 4.7 3.0 2.4 2.1 1.6 1.6 1.6 1.6 1.3 2.1 2.5
0.1 0.1 0.0 0.1 0.6 5.7 3.9 4.9 0.4 3.5 5.9 5.6 2.3 2.2 1.7 4.1 2.9 2.3 2.0 3.0 1.7 2.7 6.9 6.6 11.7 11.8 10.3 8.5 6.6 6.7 6.8 6.1 4.9 3.8 5.2 5.8 5.9 4.4 5.1 4.3 4.2 4.1 4.3 3.1 2.3 1.6 1.4 1.3 1.5 1.4 1.3 1.3 1.5 1.5
1.4 0.2 0.7 1.1 4.8 6.3 4.0 1.9 1.5 1.0 3.9 2.3 1.3 1.0 2.4 3.0 4.0 3.8 3.6 3.1 8.7 7.9 7.8 8.5 9.5 9.5 6.6 5.7 4.2 3.6 4.4 3.8 3.9 2.8 3.2 4.7 4.8 3.0 3.1 3.3 2.8 2.6 2.4 3.0 2.6 2.6 1.9 2.0 1.7 1.3 1.0 1.1 1.3 1.2
14.2 1.4 8.3 4.5 6.2 4.7 2.7 0.3 0.6 0.9 1.2 2.5 1.6 2.2 3.7 3.7 3.1 3.3 3.4 3.2 7.9 8.5 8.1 6.0 5.0 3.6 2.9 2.6 2.6 1.7 2.6 2.0 2.7 3.6 4.3 3.4 4.0 3.7 4.0 4.1 3.7 3.2 3.0 3.1 2.6 2.5 2.1 1.6 0.8 0.6 0.6 1.1 0.9 0.8
2.6 3.4 7.8 5.3 7.1 5.1 2.4 1.1 1.4 0.4 2.1 2.1 1.8 2.2 2.3 1.8 2.6 2.0 4.7 4.7 9.0 8.8 6.0 3.4 2.7 1.8 1.9 2.3 1.3 1.2 1.2 0.8 1.4 1.8 2.4 2.8 2.8 2.9 2.7 2.8 2.9 2.5 2.4 2.2 1.3 0.9 0.7 0.4 0.3 0.3 0.6 0.8 1.1 1.7
5.1 9.0 7.7 3.5 2.6 4.7 2.6 2.4 1.7 1.5 1.2 1.6 2.5 2.8 2.2 2.7 4.8 7.5 7.4 5.9 8.6 4.5 3.1 4.0 3.5 2.5 2.0 2.1 2.1 2.3 2.6 1.9 2.0 2.2 2.6 2.4 2.6 2.9 1.7 1.4 1.1 0.8 0.7 0.2 0.2 0.3 0.4 0.9 0.8 1.1 0.9 1.2 1.2 1.2
10.0 10.9 8.1 4.7 2.0 2.2 1.2 1.6 2.4 2.6 2.0 0.7 1.7 2.2 2.8 3.2 6.6 5.5 4.5 8.0 7.2 4.7 4.4 3.6 3.5 4.3 4.6 4.1 3.9 3.5 2.2 1.5 1.5 1.7 2.1 1.2 1.6 1.3 1.7 1.6 1.3 1.2 0.7 1.0 1.4 0.8 0.9 0.9 1.4 1.6 1.9 1.8 1.5 2.0
8.2 3.0 3.1 3.4 2.5 2.7 2.0 1.7 1.7 1.3 1.3 1.7 3.3 1.6 2.0 5.9 6.3 7.3 9.0 10.8 7.1 5.9 6.1 6.0 5.6 3.8 3.5 3.6 4.8 3.7 2.4 1.1 0.7 1.4 0.9 0.3 0.5 2.0 2.2 2.5 3.1 2.9 2.0 1.4 1.5 1.7 2.3 1.9 2.3 2.9 3.1 2.2 2.4 1.9
6.1 4.9 2.5 1.9 3.6 4.5 6.0 5.4 4.8 4.7 4.9 5.6 3.9 4.1 6.1 9.4 8.8 11.2 9.9 8.0 7.2 7.1 6.4 4.8 3.6 4.8 4.4 3.1 3.1 2.5 0.9 0.9 1.7 2.0 1.0 1.3 1.3 1.1 2.1 3.0 3.2 2.7 1.2 1.8 2.6 2.8 3.2 3.9 3.8 3.4 3.4 3.6 2.4 2.0
4.2 2.5 3.7 3.2 4.0 5.6 6.3 5.0 6.1 8.1 7.3 5.3 4.4 5.8 6.4 7.5 10.4 10.1 8.2 8.1 7.4 5.5 6.5 6.7 5.1 3.7 5.4 6.1 4.8 4.1 4.0 3.1 3.5 3.2 3.4 4.8 3.0 1.9 1.7 2.3 1.7 1.8 0.8 1.5 2.8 3.6 4.9 4.6 5.0 4.1 4.1 4.5 4.0 3.6
3.1 1.3 1.9 2.1 1.4 5.0 5.4 5.2 6.5 5.7 3.8 4.7 7.2 7.7 6.1 5.3 9.5 9.0 8.6 6.5 5.6 4.7 6.5 7.0 8.8 6.2 5.2 8.1 9.0 8.5 8.2 8.7 7.5 6.6 5.0 5.0 4.7 3.7 2.0 1.7 3.3 3.1 2.2 2.5 3.4 3.8 4.4 4.9 5.0 5.1 4.8 6.0 4.7 5.2
0.9 0.4 1.0 0.3 0.6 4.3 6.8 4.1 4.7 4.4 2.8 4.1 3.9 3.3 3.9 8.8 12.5 7.0 5.0 3.7 4.1 5.2 6.2 6.2 6.4 6.2 7.3 7.5 10.1 10.0 9.8 11.7 12.1 9.9 7.5 5.5 4.4 2.7 2.4 2.3 2.2 2.6 1.6 2.7 3.0 4.4 4.8 6.3 7.2 7.7 7.5 7.8 8.6 8.7
1.3 1.7 1.5 0.8 1.9 4.0 2.8 1.4 2.4 3.4 4.7 6.5 5.3 2.6 4.1 7.5 7.8 5.5 4.3 4.7 3.3 2.4 2.4 3.6 4.2 4.6 6.3 7.5 8.6 8.5 10.1 12.3 14.1 13.2 12.2 9.8 7.1 5.5 4.0 3.4 3.0 3.0 4.4 4.7 4.3 3.8 4.9 5.9 6.1 6.5 6.5 6.2 6.2 5.5
2.3 3.0 2.6 2.1 3.8 2.9 1.6 2.1 4.0 5.5 6.9 7.6 9.0 7.7 7.5 4.8 3.7 4.7 4.7 3.4 3.1 2.4 2.5 3.2 4.9 6.2 6.6 8.4 9.0 9.4 9.5 10.6 11.5 12.1 14.2 12.2 9.8 7.8 5.9 4.9 4.5 4.7 6.4 5.8 5.0 5.3 5.3 5.3 5.6 5.9 6.2 6.1 5.9 6.6
2.7 1.4 1.7 1.8 2.0 1.6 1.6 2.1 4.3 4.8 5.4 6.0 7.8 6.9 5.7 3.4 4.9 6.5 4.3 3.2 5.4 4.9 4.1 4.0 4.4 5.9 6.5 5.8 5.6 5.9 6.0 6.9 7.6 7.9 9.7 10.1 9.9 9.2 8.2 6.9 5.9 5.8 5.9 6.2 5.3 5.0 5.4 4.9 5.3 5.1 5.9 5.4 4.9 5.4

GFSWCAN_prec_snow_261.txt.gz
Snowfall_Accumulation
0.0 0.0 0.0 0.0 0.0 0.0 0.0 0.0 0.0 0.0 0.0 0.0 0.0 0.0 0.0 0.0 0.0 0.0 0.0 0.0 0.0 35.9 4.7 0.0 0.0 0.2 2.7 2.1 10.0 4.5 14.6 10.4 16.3 19.2 18.8 15.3 16.5 10.6 8.1 3.0 2.9 5.2 18.3 19.0 17.8 23.9 10.3 0.0 1.0 4.8 3.0 5.5 7.3 8.5
0.0 0.0 0.0 0.0 0.0 0.0 0.0 0.0 0.0 0.0 0.0 0.0 0.0 0.0 0.0 0.0 0.0 0.0 4.5 0.0 0.0 8.7 9.4 0.0 0.0 0.0 0.0 0.0 1.8 3.8 6.4 8.7 11.8 16.1 13.8 10.5 10.4 7.2 9.0 11.3 1.7 6.8 6.2 12.8 12.9 10.0 2.4 0.8 1.3 1.8 1.3 4.4 6.7 6.8
0.0 0.0 0.0 0.0 0.0 0.0 0.0 0.0 0.0 0.0 0.0 0.0 0.0 0.0 0.0 0.0 0.0 0.0 6.1 0.0 0.0 26.2 8.6 0.8 0.2 0.0 0.0 0.0 0.0 9.5 1.8 0.7 3.6 1.2 13.4 12.5 12.1 2.0 8.7 6.2 6.3 5.8 2.5 6.0 5.9 5.6 1.8 1.1 1.1 2.1 3.1 5.3 5.0 4.7
0.0 0.0 0.0 0.0 0.0 0.0 0.0 0.0 0.0 0.0 0.0 0.0 0.0 0.0 0.0 0.0 0.0 0.0 4.1 0.0 0.0 4.7 30.0 12.3 0.0 0.0 0.0 0.0 0.0 0.0 0.0 0.0 0.3 1.6 20.2 16.8 14.7 3.0 9.9 7.2 6.9 10.0 5.2 4.9 10.3 13.9 2.1 3.5 5.6 4.5 4.7 4.5 3.9 4.1
0.0 0.0 0.0 0.0 0.0 0.0 0.0 0.0 0.0 0.0 0.0 0.0 0.0 0.0 0.0 0.0 0.0 0.0 0.0 0.0 0.0 0.4 18.9 13.8 0.0 0.0 0.0 0.0 0.0 0.0 0.0 1.8 9.4 16.7 19.3 12.4 3.8 11.1 11.6 7.2 5.0 6.4 8.2 10.3 11.3 8.2 9.3 7.0 5.9 4.8 3.5 3.2 2.5 1.5
0.0 0.0 0.0 0.0 0.0 0.0 0.0 0.0 0.0 0.0 0.0 0.0 0.0 0.0 0.0 0.0 0.0 0.0 59.3 6.3 0.0 0.0 21.0 21.7 4.2 1.5 0.0 0.0 0.0 0.0 0.0 0.7 8.2 15.8 11.3 3.1 0.0 7.3 22.4 9.7 5.3 7.3 9.9 8.5 8.1 8.0 6.4 5.1 3.9 2.8 2.2 2.2 1.5 0.9
0.0 0.0 0.0 0.0 0.0 0.0 0.0 0.0 0.0 0.0 0.0 0.0 0.0 0.0 0.0 0.0 0.0 22.9 20.1 0.4 0.0 0.0 20.3 18.7 10.9 6.8 1.5 0.0 0.0 3.2 2.5 12.8 18.4 20.9 14.0 5.0 1.8 10.5 20.8 10.6 7.1 7.6 8.0 6.4 4.6 3.5 3.1 3.1 2.5 1.4 0.8 0.7 0.5 0.1
0.0 0.0 0.0 0.0 0.0 0.0 0.0 0.0 0.0 0.0 0.0 0.0 0.0 0.0 0.0 0.0 0.0 9.4 0.0 0.0 0.0 2.3 7.0 20.2 15.8 19.9 0.0 9.2 13.8 3.7 9.9 11.8 14.2 13.2 11.2 6.1 7.4 12.6 19.6 5.8 4.1 3.6 3.9 2.8 1.9 0.9 0.5 0.2 0.0 0.0 0.0 0.0 0.0 0.0
0.0 0.0 0.0 0.0 0.0 0.0 0.0 0.0 0.0 0.0 0.0 0.0 0.0 0.0 0.0 13.3 27.3 0.0 0.0 0.0 0.0 1.4 15.1 6.8 8.7 23.4 6.7 8.3 7.7 7.8 6.5 20.8 5.8 12.7 7.9 7.4 11.6 14.5 9.6 3.5 2.3 1.2 1.8 1.3 0.0 0.0 0.0 0.0 0.0 0.0 0.2 0.2 0.3 0.9
0.0 0.0 0.0 0.0 0.0 0.0 0.0 0.0 0.0 0.0 0.0 0.0 2.7 43.4 84.4 17.3 0.0 0.0 0.5 28.6 24.9 9.8 9.8 9.1 2.3 10.8 4.9 10.1 12.8 13.3 8.2 10.5 12.2 6.2 2.3 12.0 6.9 3.2 2.5 1.4 0.8 0.4 1.1 0.5 0.2 0.1 0.1 0.1 0.3 0.3 0.6 0.9 2.4 2.2
0.0 0.0 0.0 0.0 0.0 0.0 0.0 0.0 0.0 0.0 0.0 8.0 42.5 43.1 0.0 0.0 1.1 22.2 43.7 31.1 17.6 12.5 3.5 5.3 3.7 10.2 2.1 13.7 11.9 8.7 17.7 7.5 11.9 6.7 5.4 8.7 6.1 6.9 1.3 0.6 0.5 0.6 0.0 0.2 0.4 0.5 0.3 0.9 0.9 1.3 2.9 2.9 3.8 4.0
0.0 0.0 0.0 0.0 0.0 0.0 0.0 0.0 0.0 7.3 9.5 0.0 0.0 0.0 2.9 25.0 26.1 27.1 21.9 14.2 6.6 5.3 2.4 3.1 2.9 2.8 2.2 2.1 7.9 8.7 8.6 14.1 19.9 7.7 12.8 9.1 12.1 4.2 0.2 1.2 1.4 0.7 0.9 1.5 1.7 3.9 2.0 2.0 1.7 2.4 2.8 2.6 3.9 3.3
0.0 0.0 0.0 0.0 0.0 0.0 0.0 0.0 0.0 0.0 0.0 2.8 8.1 15.2 15.9 20.5 20.0 13.7 12.4 8.6 6.8 3.1 2.5 1.1 5.1 2.8 4.7 2.7 13.5 7.9 14.9 15.2 9.3 16.2 8.8 9.0 6.7 3.5 1.8 1.7 2.2 2.5 3.2 4.3 4.2 3.3 3.9 2.8 2.9 1.8 3.6 6.0 7.7 9.6
0.0 0.0 0.0 0.0 0.0 0.0 0.0 0.0 0.0 0.0 4.7 14.4 14.1 13.8 9.9 7.5 8.8 8.2 8.4 8.2 5.4 3.0 3.0 3.0 4.4 8.4 9.0 10.2 14.3 16.6 16.6 11.1 13.2 10.9 8.7 8.3 6.1 6.8 5.4 4.5 2.9 3.1 3.5 2.5 3.4 3.9 6.8 7.0 8.6 9.9 10.2 12.8 13.1 12.7
0.0 0.0 0.0 0.0 0.0 0.0 0.0 0.0 0.0 0.0 10.9 14.8 7.8 4.9 7.9 8.0 6.3 6.7 5.9 4.9 3.9 4.5 4.4 5.6 6.6 7.4 9.9 13.1 11.0 9.0 9.7 8.1 6.5 14.4 13.1 10.7 7.8 7.1 6.4 6.3 6.1 6.3 6.5 6.7 7.9 8.5 10.9 11.8 10.1 11.6 11.6 11.4 12.1 11.6
0.0 0.0 0.0 0.0 0.0 0.0 0.0 0.0 1.8 4.9 9.8 7.7 7.3 8.4 7.0 7.5 9.2 7.6 5.5 5.9 4.6 5.8 7.7 8.6 12.6 13.1 13.0 9.9 6.7 5.3 4.3 7.4 14.7 11.0 9.4 8.8 8.5 9.2 9.5 8.5 8.7 8.3 7.9 8.0 8.4 8.0 8.1 8.8 9.6 11.2 9.4 8.8 11.4 12.7
0.0 1.8 0.0 0.0 0.0 0.0 0.0 10.1 13.4 15.0 9.0 6.4 12.1 12.2 10.2 8.5 13.4 11.7 9.3 8.1 5.2 4.9 11.1 10.3 9.2 7.8 6.2 6.8 6.6 5.6 9.1 10.9 9.2 9.1 8.9 8.6 8.6 9.8 10.2 10.0 9.7 7.2 6.5 6.7 6.7 6.6 6.7 7.2 6.4 5.4 6.0 8.7 8.4 9.1
0.9 0.0 0.0 0.0 0.0 0.0 14.8 9.9 9.8 8.0 7.1 8.6 11.8 12.8 7.9 8.9 9.4 8.6 8.3 4.8 2.5 3.4 4.9 9.6 5.0 6.3 8.4 7.9 9.6 11.4 11.6 11.0 10.4 9.6 9.4 8.9 8.6 8.5 7.9 7.6 7.7 6.7 6.2 5.6 4.6 4.3 4.0 3.5 2.7 3.4 3.4 4.2 4.2 5.6
0.4 0.0 0.0 0.0 0.0 8.8 14.4 10.5 3.1 5.6 10.5 8.2 8.3 5.8 4.5 6.7 5.5 4.9 4.4 2.3 1.3 0.9 1.4 8.5 7.7 7.0 9.4 10.1 9.9 9.4 9.2 8.2 9.1 8.5 7.6 7.4 6.7 6.8 6.2 5.7 6.5 6.8 5.8 4.7 3.0 2.4 2.1 1.6 1.6 1.6 1.6 1.3 2.1 2.5
0.1 0.1 0.0 0.1 0.6 5.7 3.9 5.2 0.4 3.5 6.2 5.8 2.3 2.3 1.8 4.1 2.9 2.3 2.0 3.1 1.9 3.0 7.6 6.8 11.9 11.8 10.4 8.5 6.6 6.7 6.8 6.1 4.9 3.9 5.7 6.4 6.1 4.4 5.1 4.3 4.2 4.1 4.3 3.1 2.3 1.6 1.4 1.3 1.5 1.4 1.3 1.3 1.5 1.5
1.4 0.2 0.7 1.1 4.8 6.3 4.0 1.9 1.6 1.2 4.1 2.9 1.8 1.0 3.7 3.6 4.9 4.7 4.4 3.3 9.5 8.9 8.7 8.6 9.5 9.5 6.6 5.7 4.2 3.6 4.4 3.8 3.9 2.8 3.2 4.9 4.8 3.0 3.1 3.3 2.8 2.6 2.4 3.0 2.6 2.6 1.9 2.0 1.7 1.3 1.0 1.1 1.3 1.2
14.2 1.4 8.3 4.5 6.2 4.7 2.7 0.3 0.6 0.9 1.3 3.0 1.7 2.9 5.5 6.0 5.5 5.6 4.9 3.2 9.1 9.3 8.6 6.1 5.0 3.6 2.9 2.6 2.6 1.7 2.6 2.0 2.7 3.6 4.3 3.4 4.0 3.7 4.0 4.1 3.7 3.2 3.0 3.1 2.6 2.5 2.1 1.6 0.8 0.6 0.6 1.1 0.9 0.8
2.6 3.4 7.8 5.3 7.1 5.2 2.5 1.1 1.4 0.4 2.1 2.2 2.0 2.7 3.0 2.6 3.7 3.0 6.0 6.0 10.0 10.3 6.8 3.5 2.7 1.8 1.9 2.3 1.3 1.3 1.2 0.8 1.4 1.8 2.4 2.8 2.8 2.9 2.7 2.8 2.9 2.5 2.4 2.2 1.3 0.9 0.7 0.4 0.3 0.3 0.6 0.8 1.1 1.7
5.1 9.1 7.9 3.6 2.6 5.0 2.6 2.4 1.7 1.5 1.2 1.6 2.5 3.0 2.4 2.9 4.8 7.6 7.7 6.5 9.6 5.5 3.6 4.2 3.5 2.5 2.1 2.2 2.2 2.3 2.7 1.9 2.0 2.2 2.6 2.4 2.6 2.9 1.7 1.4 1.1 0.8 0.7 0.2 0.2 0.3 0.4 0.9 0.8 1.1 0.9 1.2 1.2 1.2
10.0 10.9 8.1 4.7 2.0 2.2 1.3 1.7 2.5 2.6 2.0 0.7 1.7 2.2 2.8 3.2 6.6 5.6 4.7 8.7 8.1 5.7 5.0 3.9 3.6 4.3 4.6 4.1 3.9 3.5 2.2 1.5 1.5 1.7 2.1 1.2 1.6 1.3 1.7 1.6 1.3 1.2 0.7 1.0 1.4 0.8 0.9 0.9 1.4 1.6 1.9 1.8 1.5 2.0
8.2 3.0 3.1 3.4 2.5 2.7 2.0 1.7 1.7 1.3 1.3 1.7 3.3 1.6 2.0 5.9 6.3 7.3 9.1 11.1 7.8 6.6 6.3 6.0 5.6 3.8 3.6 3.6 4.8 3.7 2.4 1.1 0.7 1.4 0.9 0.3 0.5 2.0 2.2 2.5 3.1 2.9 2.0 1.4 1.5 1.7 2.3 1.9 2.3 2.9 3.1 2.2 2.4 1.9
6.1 4.9 2.5 1.9 3.6 4.5 6.0 5.4 4.8 4.7 4.9 5.6 3.9 4.1 6.1 9.4 8.8 11.2 10.0 8.0 7.3 7.3 6.5 4.8 3.6 4.8 4.4 3.1 3.1 2.5 0.9 0.9 1.7 2.0 1.0 1.3 1.3 1.1 2.1 3.0 3.2 2.7 1.2 1.8 2.6 2.8 3.2 3.9 3.8 3.4 3.4 3.6 2.4 2.0
4.2 2.5 3.7 3.2 4.0 5.6 6.3 5.0 6.1 8.1 7.3 5.3 4.4 5.8 6.4 7.5 10.5 10.3 8.4 8.2 7.5 5.6 6.5 6.8 5.2 3.7 5.4 6.1 4.8 4.1 4.0 3.1 3.5 3.2 3.4 4.8 3.0 1.9 1.7 2.3 1.7 1.8 0.8 1.5 2.8 3.6 4.9 4.6 5.0 4.1 4.1 4.5 4.0 3.6
3.1 1.3 1.9 2.1 1.4 5.0 5.4 5.2 6.5 5.7 3.8 4.7 7.2 7.7 6.2 5.4 9.9 9.4 8.9 6.6 5.6 4.7 6.5 7.1 8.9 6.3 5.2 8.1 9.0 8.5 8.2 8.7 7.5 6.6 5.0 5.0 4.7 3.7 2.0 1.7 3.3 3.1 2.2 2.5 3.4 3.8 4.4 4.9 5.0 5.1 4.8 6.0 4.7 5.2
0.9 0.4 1.0 0.3 0.6 4.3 6.9 4.2 4.8 4.4 2.8 4.1 3.9 3.3 4.0 9.1 13.3 7.8 5.6 4.2 4.5 5.5 6.3 6.3 6.4 6.2 7.3 7.5 10.1 10.0 9.8 11.7 12.1 9.9 7.5 5.5 4.4 2.7 2.4 2.3 2.2 2.6 1.6 2.7 3.0 4.4 4.8 6.3 7.2 7.7 7.5 7.8 8.7 8.8
1.3 1.7 1.5 0.8 2.0 4.2 3.1 1.5 2.4 3.4 4.7 6.5 5.3 2.6 4.1 7.8 8.4 6.2 4.7 5.1 3.5 2.5 2.5 3.7 4.2 4.6 6.3 7.5 8.6 8.5 10.1 12.3 14.1 13.2 12.2 9.8 7.1 5.5 4.0 3.4 3.0 3.0 4.4 4.7 4.3 3.8 4.9 5.9 6.1 6.5 6.5 6.2 6.2 5.5
2.3 3.0 2.6 2.1 4.0 3.0 1.6 2.2 4.0 5.6 7.0 7.7 9.1 7.8 7.5 4.8 3.8 5.0 5.0 3.7 3.1 2.5 2.5 3.2 4.9 6.2 6.6 8.4 9.0 9.4 9.5 10.6 11.5 12.1 14.2 12.2 9.8 7.8 5.9 4.9 4.5 4.7 6.4 5.8 5.0 5.3 5.3 5.3 5.7 5.9 6.3 6.1 6.0 6.8
2.7 1.4 1.7 1.8 2.1 1.7 1.6 2.1 4.3 5.1 5.6 6.2 8.0 7.2 5.8 3.5 5.0 6.6 4.4 3.4 5.5 4.9 4.1 4.0 4.4 5.9 6.5 5.8 5.6 5.9 6.0 6.9 7.6 7.9 9.7 10.1 9.9 9.2 8.2 6.9 5.9 5.8 5.9 6.2 5.3 5.0 5.4 5.0 5.3 5.1 5.9 5.5 5.0 5.5